[{"header": {"dx": 0.06612293990616946, "dy": 0.0552356325346848, "nx": 98, "ny": 59, "la1": 35.046912555036876, "la2": 31.78801023549047, "lo1": -121.43107172385933, "lo2": -114.95102361305473, "refTime": "2026041023", "parameterCategory": 1, "parameterNumber": 2}, "data": [0.57, 0.56, 1.2, 1.76, 2.29, 2.29, 2.29, 1.76, 1.73, 1.71, 2.89, 3.83, 6.31, 6.53, 6.18, 5.1, 4.34, 4.34, 5.1, 4.8, 5.0, 4.72, 4.13, 5.14, 4.8, 5.0, 5.14, 5.14, 4.25, 3.95, 4.25, 4.0, 3.63, 3.39, 4.29, 4.6, 3.93, 2.98, 2.21, 2.8, 2.41, 2.83, 2.7, 3.61, 5.0, 5.35, 5.86, 6.7, 6.56, 7.38, 7.9, 8.3, 9.17, 9.62, 9.62, 10.01, 10.01, 10.29, 10.66, 11.26, 11.2, 11.02, 10.96, 10.0, 9.05, 7.18, 6.84, 7.51, 9.17, 10.63, 11.28, 11.26, 10.63, 10.55, 10.85, 10.68, 10.45, 9.81, 8.05, 4.98, 3.35, 3.2, 2.21, 0.0, 0.0, 2.4, 4.47, 5.81, 6.2, 5.6, 3.6, 2.57, 2.57, 2.57, 4.34, 5.21, 6.95, 6.95, 0.57, 0.61, 1.1, 1.63, 1.73, 2.26, 2.26, 1.73, 1.71, 1.69, 2.33, 4.13, 4.92, 5.28, 4.8, 4.6, 3.21, 3.61, 3.61, 3.25, 3.82, 3.68, 3.82, 3.68, 4.25, 4.13, 4.25, 3.51, 3.25, 3.25, 4.13, 4.13, 4.4, 3.16, 1.13, 2.2, 2.0, 1.13, 2.23, 2.68, 1.95, 1.28, 2.42, 3.95, 5.0, 5.86, 5.86, 6.7, 6.56, 7.38, 8.3, 9.17, 9.96, 9.21, 9.57, 10.01, 10.01, 10.66, 10.66, 11.02, 11.02, 10.63, 10.55, 9.05, 6.7, 5.86, 6.94, 8.01, 9.56, 11.28, 12.27, 12.23, 12.04, 11.37, 11.18, 10.89, 10.6, 9.81, 8.05, 4.98, 3.35, 3.2, 2.21, 0.0, 0.0, 2.4, 4.47, 5.81, 6.2, 5.6, 3.6, 2.57, 2.57, 2.57, 4.34, 5.21, 6.95, 6.95, 0.57, 0.57, 1.1, 1.18, 1.73, 1.73, 1.73, 1.71, 1.14, 1.12, 1.75, 2.83, 5.14, 4.71, 3.88, 3.36, 3.36, 2.39, 1.69, 2.37, 1.63, 2.42, 3.68, 3.82, 3.82, 3.51, 3.36, 2.59, 2.59, 2.49, 3.39, 3.16, 3.39, 2.69, -0.0, 0.0, 0.0, 0.98, 2.21, 1.99, 1.45, 2.19, 3.29, 5.0, 5.86, 5.86, 5.86, 6.7, 7.51, 8.3, 8.76, 9.56, 9.96, 9.62, 9.57, 10.01, 10.01, 10.66, 10.66, 10.66, 11.02, 10.63, 9.05, 6.7, 4.87, 5.93, 7.12, 8.3, 9.89, 11.64, 12.86, 13.11, 12.45, 11.79, 11.18, 11.36, 9.24, 8.0, 2.68, 2.24, 2.24, 2.68, 2.68, 2.24, 1.58, 2.21, 3.9, 5.36, 5.51, 4.58, 3.45, 2.57, 2.57, 3.32, 4.34, 6.18, 7.06, 7.06, -0.0, -0.0, 0.56, 1.18, 1.73, 1.73, 1.73, 1.16, 1.14, 1.18, 1.65, 2.83, 4.25, 3.88, 3.21, 2.39, 2.49, 1.69, 0.82, 0.82, 1.69, 2.49, 2.49, 3.36, 3.39, 3.92, 2.47, 1.68, 1.68, 1.69, 1.76, 1.63, 2.41, 2.49, 1.49, -0.0, 2.2, 4.4, 3.22, 1.68, 0.83, 2.44, 4.17, 5.2, 5.86, 5.86, 6.08, 6.7, 7.51, 9.17, 9.2, 9.96, 9.96, 9.62, 9.34, 9.34, 9.66, 10.04, 10.04, 10.28, 10.63, 9.65, 7.13, 5.06, 5.11, 6.43, 7.9, 8.49, 9.84, 11.42, 13.25, 13.64, 12.8, 11.09, 10.8, 11.06, 8.05, -0.0, -3.82, -3.58, -0.0, 2.21, 2.21, 2.21, 3.13, 4.02, 4.47, 4.98, 4.74, 3.6, 3.45, 2.69, 3.63, 4.34, 5.36, 6.73, 7.15, 6.73, -0.0, -0.0, 0.56, 1.1, 1.73, 1.73, 1.73, 1.09, 0.57, 0.59, 1.11, 2.17, 3.36, 2.57, 1.75, 1.62, 1.56, 0.79, -0.0, -0.0, 1.23, 1.33, 1.28, 1.33, 1.68, 1.33, 1.33, 1.33, 1.33, 1.76, 0.82, 0.85, 1.62, 1.6, 1.39, 2.58, 4.2, 5.21, 3.32, 1.63, 1.64, 3.29, 4.17, 5.86, 5.86, 6.08, 6.33, 6.94, 8.01, 9.17, 9.17, 9.96, 9.26, 9.26, 9.26, 9.34, 9.34, 9.66, 10.04, 10.04, 10.04, 7.59, 4.87, 4.1, 5.67, 7.25, 8.18, 9.06, 9.89, 11.28, 13.25, 13.75, 12.4, 11.79, 10.89, 9.39, 5.36, -2.2, -3.91, -3.6, -1.4, -0.0, 1.27, 2.48, 3.16, 3.79, 3.91, 3.97, 3.4, 3.6, 2.83, 2.83, 3.6, 4.5, 6.01, 6.79, 6.79, 5.53, -0.0, -0.0, -0.0, 0.56, 1.18, 1.63, 1.1, 0.55, -0.0, -0.0, 0.56, 1.65, 2.39, 1.75, 0.85, -0.0, 0.85, -0.0, -0.0, -0.0, 0.89, 0.82, -0.0, -0.0, -0.0, -0.0, -0.0, 1.23, 2.42, 2.71, 0.89, -0.0, 0.85, 0.89, 1.65, 2.31, 4.12, 5.36, 4.12, 1.76, 1.63, 3.82, 4.87, 5.72, 5.86, 5.72, 6.33, 7.51, 8.42, 8.85, 8.93, 8.85, 8.85, 8.85, 9.26, 8.93, 9.0, 9.0, 9.66, 10.04, 8.38, 5.14, 4.1, 4.87, 6.52, 8.31, 8.95, 9.56, 10.28, 11.66, 13.19, 13.75, 13.11, 11.79, 10.14, 5.81, -0.0, -2.82, -1.73, -3.79, -2.2, -1.08, -0.0, 1.99, 2.16, 2.8, 2.64, 3.55, 3.55, 2.82, 2.82, 2.51, 3.55, 5.37, 6.55, 6.55, 5.69, 4.26, -0.0, -0.0, -0.0, 0.56, 1.1, 1.76, 1.12, -0.0, -0.0, -0.0, -0.0, 1.12, 1.62, 0.85, -0.0, -0.0, -0.0, -0.0, -0.0, 0.78, 0.77, -0.0, -0.0, -0.0, -0.0, -0.0, -0.0, 1.33, 2.6, 2.7, 1.39, -0.0, -0.0, -0.0, 0.84, 2.54, 3.8, 5.46, 4.2, 1.75, 1.33, 2.71, 4.9, 6.08, 6.08, 6.45, 7.51, 8.12, 8.12, 8.24, 8.24, 8.12, 8.85, 8.85, 9.26, 8.93, 8.64, 8.73, 9.4, 9.04, 5.9, 3.19, 3.25, 4.87, 6.73, 8.84, 9.8, 9.89, 10.66, 11.64, 13.11, 13.91, 13.57, 12.09, 7.37, -0.0, -3.97, -2.67, -0.89, -0.85, -1.98, -1.05, -0.0, -0.0, 1.19, 0.88, 1.99, 2.99, 2.99, 1.84, 1.47, 2.6, 3.91, 5.15, 5.49, 5.37, 4.68, 3.6, -0.0, -0.0, -0.0, 0.57, 1.12, 1.12, 0.57, -0.0, -0.0, -0.58, -0.58, -0.0, -0.0, -0.0, -0.0, -0.0, -0.0, -0.0, -0.0, -0.0, -0.0, -0.0, -0.85, -0.89, -0.0, -0.0, -0.0, 1.39, 2.7, 2.7, -0.0, -0.0, -0.0, -0.0, 1.63, 2.64, 3.33, 4.68, 5.46, 3.87, 2.7, 4.05, 5.32, 6.5, 6.76, 7.24, 7.36, 8.53, 7.36, 7.95, 7.18, 8.22, 8.53, 8.85, 8.53, 8.22, 8.31, 8.38, 8.38, 7.68, 4.44, 2.45, 3.25, 5.55, 7.13, 9.31, 10.51, 10.63, 10.66, 12.15, 13.72, 14.11, 13.76, 11.18, 4.47, -3.93, -5.69, -3.6, -1.75, -0.0, 0.77, -0.0, -0.88, -0.99, -0.0, -0.0, 1.2, 2.23, 1.08, 1.08, 0.98, 1.8, 3.79, 4.43, 4.58, 3.77, 3.4, 3.6, -0.0, -0.57, -0.0, 0.57, 1.12, 1.14, 0.58, -0.0, -0.0, -0.56, -0.57, -1.12, -0.0, -0.0, -0.0, -0.0, -0.89, -0.89, -0.89, -0.0, -0.0, -0.0, -0.94, -0.94, -0.0, -0.0, -0.0, 1.4, 1.47, -0.0, -0.0, -0.0, -0.0, 1.4, 2.8, 3.63, 4.74, 4.14, 5.59, 5.21, 3.87, 5.1, 5.98, 6.24, 6.98, 6.53, 8.53, 8.54, 7.51, 7.36, 7.95, 7.18, 7.48, 7.78, 7.36, 7.78, 7.48, 7.59, 6.83, 5.06, 3.29, 2.54, 3.96, 5.67, 8.05, 9.7, 10.84, 11.25, 11.28, 12.45, 13.65, 12.94, 12.07, 7.71, 0.0, -6.17, -6.01, -4.2, -1.76, -0.0, 0.85, 1.44, 0.82, -1.74, -3.13, -2.24, 1.34, -0.0, -0.0, -0.0, -0.0, 1.2, 1.8, 2.8, 2.64, 2.82, 2.82, 2.82, -0.58, -0.58, -0.0, 0.58, 1.14, 1.05, 0.58, -0.0, -0.0, -0.0, -0.58, -1.16, -1.07, -0.53, -0.0, -0.89, -1.96, -2.82, -2.4, -1.4, -0.0, -0.0, -0.0, -0.0, -0.0, -0.0, -0.0, -0.0, -0.0, -0.0, -0.0, -0.0, -0.0, 1.52, 3.47, 4.11, 4.11, 3.47, 5.59, 6.3, 6.18, 6.95, 6.95, 6.64, 6.73, 6.53, 6.7, 7.36, 7.64, 7.64, 7.48, 6.7, 6.7, 6.7, 6.57, 6.57, 6.57, 6.15, 5.06, 3.51, 2.53, 3.25, 4.52, 5.86, 7.93, 9.6, 10.75, 11.15, 11.37, 11.92, 11.37, 9.4, 7.6, 4.29, -0.88, -5.29, -5.76, -4.13, -1.45, -0.0, 1.5, 3.11, 3.15, -0.0, -3.13, -2.97, -2.24, -2.24, -2.24, -2.24, -1.79, -0.0, -0.0, 0.96, 1.84, 1.84, 1.84, 2.64, -0.58, -0.0, -0.0, 0.53, 1.16, 0.54, -0.0, -0.0, -0.0, -0.0, -0.0, -1.19, -1.73, -1.73, -1.98, -1.84, -2.99, -3.43, -3.43, -2.51, -1.05, -0.0, -0.0, -0.0, -0.0, -0.0, -1.63, -0.0, -0.0, -0.0, -0.0, 1.14, 1.14, 2.76, 3.35, 3.76, 5.06, 5.59, 6.01, 7.06, 7.76, 7.41, 7.06, 7.21, 6.32, 4.96, 6.04, 5.9, 6.42, 6.7, 5.86, 5.86, 5.86, 4.87, 4.87, 5.06, 5.93, 5.0, 4.07, 2.51, 2.39, 3.17, 4.87, 6.4, 7.59, 8.99, 10.25, 10.65, 9.8, 8.22, 7.48, 5.49, 4.85, 3.33, 2.47, -0.0, -2.17, -1.71, -0.0, 0.86, 2.82, 3.95, 4.71, 3.2, -1.2, -3.9, -3.47, -3.39, -2.97, -2.97, -2.68, -2.21, -0.0, -0.0, -0.0, 0.89, 1.03, 1.98, -0.0, -0.0, -0.0, 0.59, 1.19, 0.55, -0.0, -0.0, -0.0, -0.0, -0.0, -0.55, -1.23, -1.76, -1.76, -1.58, -2.23, -2.79, -3.2, -2.68, -1.9, -0.57, -0.0, -0.0, -0.0, -1.52, -3.22, -1.16, -0.0, -0.0, 3.47, 2.8, 2.8, 3.63, 3.63, 4.74, 5.77, 7.15, 6.73, 7.81, 7.81, 7.81, 7.15, 6.32, 5.31, 3.45, 4.05, 5.32, 5.32, 5.0, 4.17, 4.93, 4.0, 3.17, 3.14, 3.25, 4.98, 4.87, 4.25, 2.44, 2.47, 3.91, 4.71, 5.67, 6.73, 7.45, 8.99, 8.86, 7.11, 5.86, 5.89, 6.05, 5.34, 5.49, 6.11, 5.51, 2.51, 1.66, 1.5, 2.19, 4.01, 5.0, 5.76, 5.21, 2.98, -2.68, -4.57, -4.57, -4.15, -3.95, -3.58, -3.13, -2.21, -1.19, -0.0, -0.0, 1.03, 0.89, -0.0, -0.0, -0.0, 0.59, 1.19, 0.55, -0.0, -0.0, -0.0, -0.0, -0.0, -0.0, -0.57, -1.76, -1.76, -1.27, -1.13, -1.16, -2.21, -2.5, -2.4, -1.86, -1.26, -1.24, -2.15, -2.91, -2.91, -2.5, -1.0, -0.0, 1.99, 3.47, 4.29, 4.29, 4.29, 4.58, 5.77, 6.79, 7.44, 8.4, 7.82, 7.2, 6.11, 4.42, 2.69, 2.58, 2.49, 3.61, 3.77, 3.92, 3.02, 3.07, 2.22, 2.18, 2.35, 3.58, 6.1, 7.69, 4.92, 2.41, 2.54, 3.96, 5.06, 5.06, 4.81, 5.55, 6.17, 6.42, 5.67, 6.47, 7.49, 7.78, 6.57, 6.21, 6.6, 6.11, 4.71, 4.76, 4.31, 4.32, 5.09, 6.0, 6.79, 7.59, 6.32, 2.84, -4.4, -5.43, -5.34, -5.09, -3.95, -3.58, -3.2, -3.22, -0.96, -0.0, 0.95, 1.96, -0.0, -0.0, -0.0, 0.54, 1.19, 0.55, -0.0, -0.0, -0.0, -0.0, 0.54, -0.0, -0.0, -0.57, -1.23, -1.11, -0.59, -0.61, -0.53, -1.61, -2.21, -2.4, -2.12, -2.24, -2.68, -3.13, -3.58, -2.91, -1.88, -0.61, 0.59, 2.6, 4.29, 4.74, 4.58, 4.16, 4.95, 6.79, 7.82, 8.17, 7.2, 5.49, 4.14, 2.69, 1.26, 2.58, 2.69, 2.7, 3.87, 4.05, 3.61, 2.49, 1.28, 1.28, 2.6, 4.07, 6.4, 8.51, 7.44, 3.39, 2.44, 4.81, 4.81, 4.81, 5.06, 5.06, 4.48, 4.65, 5.73, 7.51, 8.85, 8.38, 6.21, 4.92, 4.11, 4.87, 6.47, 7.11, 7.36, 6.43, 6.45, 7.48, 7.94, 8.32, 7.33, 6.6, 2.68, -3.72, -4.38, -4.47, -3.9, -3.58, -2.84, -2.6, -1.52, -0.0, 0.89, 1.84, -0.0, -0.0, -0.0, 0.59, 1.19, 1.08, -0.0, -0.0, -0.0, -0.0, 0.55, 0.57, -0.0, -0.0, -0.57, -1.08, -0.57, -0.0, -0.0, -0.61, -1.13, -1.16, -1.26, -1.79, -2.17, -2.68, -2.91, -2.79, -1.84, -1.13, -0.0, 1.27, 4.29, 4.56, 3.91, 3.8, 6.32, 6.79, 8.63, 6.8, 5.49, 4.14, 2.54, 2.69, 2.69, 1.2, 2.46, 2.83, 4.0, 4.2, 4.2, 4.2, 2.69, 4.14, 4.37, 5.59, 6.95, 7.59, 8.46, 6.08, 3.39, 5.2, 6.16, 5.2, 5.4, 5.4, 4.9, 6.16, 7.59, 9.09, 8.42, 7.81, 5.49, 3.77, 4.3, 6.2, 8.06, 9.25, 9.6, 8.95, 8.85, 8.64, 8.68, 8.3, 7.67, 8.17, 7.12, 5.6, 3.22, 2.99, 2.0, 0.87, -0.0, -0.74, -0.94, 0.94, 1.84, 1.84, -0.0, -0.0, -0.0, 0.59, 1.07, 1.19, 1.08, 0.55, -0.0, 0.61, 0.55, 0.57, 0.59, 0.59, -0.0, -0.55, -0.55, -0.0, -0.0, -0.54, -1.27, -0.55, -0.0, 0.45, 0.0, -0.45, -1.2, -2.23, -1.58, -0.57, -0.0, 1.27, 2.48, 4.29, 3.91, 3.4, 5.24, 6.11, 6.28, 5.37, 2.64, 2.67, 2.69, 2.69, 2.69, 2.69, 2.69, 3.8, 3.8, 4.71, 4.96, 5.59, 5.59, 5.59, 5.31, 6.01, 6.63, 7.56, 8.22, 6.97, 5.9, 5.98, 7.27, 7.27, 6.3, 6.58, 6.18, 7.59, 9.09, 8.73, 7.82, 6.44, 6.01, 5.9, 6.56, 8.05, 9.6, 10.75, 11.14, 11.2, 10.63, 9.0, 8.79, 7.76, 7.15, 6.01, 6.79, 6.18, 6.04, 5.9, 6.04, 3.91, 1.44, -0.0, -0.0, -0.0, 0.74, 0.74, -0.0, -0.0, -0.0, 0.54, 1.07, 1.19, 1.19, 1.08, 0.55, 0.55, 0.63, 0.57, 0.59, 0.59, 0.57, -0.0, -0.0, -0.0, 0.57, -0.6, -1.84, -0.54, 0.55, 2.12, 1.58, 0.89, -0.0, -0.63, -1.23, -0.55, -0.0, 1.27, 1.27, 3.0, 2.47, 3.2, 3.55, 3.91, 3.2, 2.82, 2.54, 1.84, 2.69, 2.51, 2.69, 2.69, 3.8, 5.31, 5.31, 5.31, 6.01, 6.32, 6.64, 6.64, 6.64, 6.64, 6.98, 7.81, 7.56, 7.59, 7.59, 7.56, 7.81, 7.81, 8.4, 6.82, 7.44, 6.98, 7.9, 9.09, 9.32, 8.05, 8.38, 9.34, 9.56, 10.58, 11.6, 12.26, 12.26, 12.27, 10.91, 9.66, 8.38, 7.02, 6.64, 6.18, 5.89, 6.04, 6.04, 6.04, 5.86, 5.13, 3.88, 2.28, 1.67, 0.79, 0.78, 0.78, -0.0, -0.0, -0.0, -0.0, 0.54, 1.07, 1.73, 1.76, 1.11, 1.11, 1.11, 0.57, 0.59, 0.57, 0.55, -0.0, -0.0, 0.59, 1.16, -0.0, -1.95, -1.07, 0.59, 2.23, 1.79, 0.63, -0.0, -0.0, -0.0, -0.0, 0.55, 1.11, 1.27, 1.27, 1.23, 1.84, 0.96, 1.63, 3.2, 3.2, 2.66, 2.82, 2.66, 2.82, 4.14, 4.37, 5.31, 6.01, 6.63, 6.63, 6.63, 6.63, 6.32, 6.32, 6.32, 6.32, 7.21, 7.21, 7.56, 8.37, 8.37, 8.93, 9.04, 8.63, 9.03, 7.85, 6.94, 7.06, 7.28, 9.86, 11.44, 11.2, 12.23, 12.23, 11.88, 11.88, 13.19, 13.19, 12.79, 11.83, 10.66, 9.67, 8.38, 7.31, 6.95, 6.95, 7.27, 5.76, 6.95, 6.95, 6.18, 4.96, 3.61, 3.69, 4.07, 3.63, 3.2, 3.2, -0.0, -0.0, -0.0, -0.0, -0.0, 1.07, 1.73, 2.44, 1.76, 1.76, 1.11, 1.11, 0.59, 0.57, -0.0, -0.0, -0.53, 0.53, 1.58, -0.0, -1.84, -1.73, -0.0, 0.89, 0.96, -0.0, -0.0, -0.0, -0.0, 0.61, 1.08, 1.76, 1.11, 1.27, 1.13, 0.59, 1.16, 1.88, 2.95, 4.43, 3.63, 3.91, 5.06, 4.29, 5.69, 6.28, 6.63, 7.07, 7.6, 7.6, 6.63, 6.01, 5.31, 5.59, 6.32, 6.64, 7.21, 7.56, 8.37, 8.93, 9.2, 9.63, 9.97, 8.33, 8.33, 8.0, 7.1, 7.1, 7.55, 10.65, 12.42, 13.64, 15.24, 15.1, 13.99, 13.72, 13.92, 13.92, 13.44, 12.04, 9.42, 8.82, 8.42, 7.68, 8.03, 8.03, 8.38, 8.32, 7.68, 7.31, 6.83, 5.06, 4.25, 4.5, 5.63, 6.15, 5.76, 5.76, -0.0, -0.0, -0.0, -0.0, -0.0, 0.61, 1.73, 2.2, 2.44, 2.22, 1.76, 1.8, 1.13, -0.0, -0.55, -1.07, -0.54, -0.0, 0.95, -0.0, -0.0, -0.55, -0.0, -0.0, 0.89, 0.89, -0.0, -0.0, -0.0, 0.55, 1.08, 1.57, 1.76, 1.11, 1.13, 1.16, 1.4, 2.21, 2.5, 3.07, 3.72, 4.27, 4.4, 4.55, 4.55, 6.9, 6.9, 7.6, 7.6, 7.6, 6.63, 5.31, 4.71, 4.96, 5.24, 6.32, 7.9, 7.06, 8.05, 10.05, 9.97, 9.97, 9.76, 9.32, 8.0, 7.55, 7.1, 7.54, 8.45, 10.14, 11.61, 14.42, 16.27, 16.69, 15.57, 14.75, 13.83, 13.39, 11.59, 10.58, 9.49, 8.72, 8.4, 8.43, 8.67, 8.88, 8.88, 8.88, 7.95, 6.64, 5.9, 5.14, 4.8, 5.0, 5.86, 7.36, 7.48, 7.48, -0.0, -0.0, -0.0, -0.0, -0.0, 0.55, 1.19, 1.73, 2.4, 2.2, 2.44, 2.23, 1.84, 0.59, -0.0, -1.19, -1.08, -1.08, -0.55, -0.0, -0.0, -0.0, -0.0, -0.0, 0.59, 1.11, 0.63, -0.0, -0.0, 0.63, 1.23, 1.76, 1.76, 1.76, 1.8, 1.84, 1.61, 1.88, 2.5, 3.07, 3.6, 4.11, 4.27, 4.4, 4.4, 7.06, 7.63, 8.06, 8.06, 6.9, 5.03, 4.37, 4.71, 5.59, 6.64, 6.01, 7.41, 7.33, 9.2, 9.54, 9.54, 9.76, 9.76, 9.32, 8.0, 7.54, 7.1, 7.85, 8.56, 10.18, 11.37, 13.49, 16.05, 16.47, 14.75, 13.01, 10.27, 10.68, 10.25, 9.8, 9.49, 9.24, 9.24, 9.08, 9.36, 9.36, 8.95, 7.69, 7.02, 6.24, 5.9, 5.63, 5.86, 5.86, 6.71, 7.82, 7.9, 7.9, -0.0, -0.0, -0.0, -0.0, -0.0, 0.55, 1.08, 1.73, 1.73, 2.4, 2.86, 2.86, 2.23, 1.13, -0.0, -0.61, -0.55, -0.57, -0.59, -0.59, -0.59, -0.0, -0.0, -0.0, 0.61, 1.13, 0.57, -0.0, -0.0, 0.57, 1.11, 1.11, 1.58, 1.76, 1.8, 1.8, 1.84, 1.84, 2.53, 2.79, 3.14, 3.35, 3.88, 4.11, 4.52, 4.4, 7.63, 8.06, 7.63, 5.37, 4.14, 3.8, 5.31, 5.31, 6.32, 6.64, 6.64, 7.68, 8.93, 8.63, 8.14, 8.77, 8.77, 8.33, 7.85, 6.7, 6.57, 6.82, 7.81, 8.82, 10.01, 12.09, 14.39, 14.21, 5.51, 4.22, 5.34, 6.51, 7.56, 8.91, 10.41, 10.01, 10.32, 9.9, 9.36, 8.8, 7.44, 6.64, 6.14, 5.86, 5.18, 5.86, 6.62, 7.15, 7.52, 7.9, 8.22, 8.22, -0.0, -0.0, -0.0, -0.0, -0.0, 0.57, 0.57, 1.08, 1.73, 2.2, 2.86, 2.86, 2.84, 1.84, -0.0, -0.55, -0.55, -0.0, -0.0, -0.0, -0.59, -0.57, -0.0, -0.0, 0.51, 0.57, 0.57, 0.57, -0.0, 0.57, 0.59, 1.27, 1.11, 1.58, 1.8, 1.8, 2.23, 2.23, 2.23, 3.14, 3.14, 3.35, 3.88, 4.11, 3.88, 4.4, 7.21, 7.06, 6.08, 4.56, 4.14, 5.03, 5.31, 5.31, 5.31, 6.32, 5.89, 7.35, 8.73, 7.42, 7.35, 7.76, 7.35, 6.82, 7.2, 6.45, 6.01, 6.32, 6.53, 6.83, 8.22, 10.01, 14.58, 11.21, 6.52, 4.19, 5.34, 6.51, 7.89, 9.11, 10.32, 10.85, 10.85, 10.32, 8.82, 7.06, 6.18, 6.04, 6.15, 6.57, 5.95, 6.71, 7.44, 7.9, 8.27, 8.27, 7.9, 7.9, 0.57, 0.57, -0.0, -0.0, 0.57, 0.57, 0.57, 0.57, 1.23, 1.76, 2.22, 2.86, 3.14, 2.53, 1.13, -0.0, -0.55, -0.0, -0.0, -0.0, -0.0, -0.55, -0.0, -0.0, -0.0, 0.57, 0.57, 0.57, 0.51, 0.59, 0.59, 0.57, 1.11, 1.27, 1.8, 1.8, 2.23, 2.51, 2.51, 2.84, 3.14, 3.35, 3.72, 3.88, 3.88, 4.11, 7.06, 7.06, 6.9, 5.69, 5.31, 5.69, 5.69, 5.69, 5.03, 5.31, 5.69, 6.32, 7.9, 7.56, 6.11, 6.11, 6.45, 6.73, 6.73, 6.18, 5.46, 5.69, 6.04, 6.95, 7.81, 14.31, 16.48, 15.77, 14.19, 11.6, 11.21, 11.03, 10.91, 10.16, 11.08, 11.08, 10.49, 8.63, 6.64, 5.76, 6.04, 5.9, 6.57, 7.36, 7.08, 7.52, 8.27, 7.94, 7.94, 7.94, 7.9, 7.9, 0.57, 0.57, 0.57, 0.57, 0.57, 0.51, 0.59, 0.57, 1.11, 1.8, 2.48, 2.84, 3.14, 2.79, 1.13, -0.0, -0.0, -0.0, -0.0, -0.0, -0.0, -0.55, -0.0, -0.0, 0.57, 0.57, 0.57, 0.51, 0.59, 0.59, 0.59, 0.57, 0.57, 1.27, 1.8, 1.8, 2.23, 2.51, 2.51, 2.84, 2.84, 3.43, 3.72, 3.88, 3.88, 4.77, 5.24, 6.16, 6.3, 6.1, 5.6, 6.9, 6.52, 5.37, 5.69, 5.69, 6.28, 5.49, 6.98, 6.64, 6.95, 6.45, 6.79, 6.73, 6.73, 5.76, 5.29, 5.9, 6.83, 8.21, 9.97, 12.86, 16.61, 15.84, 15.1, 14.42, 13.35, 12.27, 12.47, 10.73, 10.73, 9.83, 7.47, 4.83, 5.21, 5.76, 6.04, 6.7, 7.48, 7.85, 9.26, 8.59, 8.59, 8.31, 8.3, 7.94, 8.27, 8.27, 0.57, 0.57, 0.57, 0.57, 0.51, 0.59, 0.59, 0.59, 1.27, 2.23, 2.51, 2.84, 3.07, 3.07, 1.84, -0.0, -0.0, -0.0, 0.57, -0.0, -0.0, -0.55, -0.0, -0.0, 0.57, 0.57, 1.11, 0.57, 0.59, -0.0, -0.0, 0.57, 0.57, 1.27, 1.8, 1.8, 2.23, 2.23, 2.51, 2.84, 2.84, 3.16, 3.43, 4.0, 4.4, 4.8, 5.34, 6.26, 6.23, 6.16, 5.57, 5.02, 6.13, 5.37, 5.69, 5.69, 6.28, 5.37, 5.69, 6.98, 7.56, 7.56, 6.79, 6.79, 6.01, 5.21, 5.29, 5.9, 7.41, 8.4, 9.49, 12.75, 13.92, 15.56, 14.84, 14.17, 13.64, 12.33, 11.14, 9.83, 8.94, 5.75, 3.22, 3.09, 4.6, 6.83, 6.7, 7.48, 7.78, 8.22, 9.96, 9.57, 8.59, 8.3, 7.94, 8.31, 8.27, 8.27, 1.11, 1.11, 1.11, 0.57, 0.59, 0.59, 0.51, 0.59, 1.6, 2.23, 2.84, 2.79, 3.07, 2.68, 1.84, -0.0, -0.0, -0.0, 0.57, -0.0, -0.0, -0.55, -0.55, -0.0, 0.57, 0.57, 1.11, 0.57, 0.59, -0.0, -0.0, 0.59, 0.59, 1.27, 1.8, 1.8, 1.8, 2.23, 2.23, 2.23, 2.23, 2.86, 3.48, 4.0, 5.09, 5.34, 5.36, 5.36, 4.92, 4.88, 4.3, 4.11, 3.72, 3.43, 4.43, 5.15, 6.52, 6.08, 4.58, 5.06, 7.44, 7.82, 8.54, 6.11, 6.01, 4.34, 5.06, 7.35, 8.43, 9.24, 9.97, 11.51, 13.21, 14.64, 14.42, 13.91, 14.15, 11.95, 9.97, 8.77, 7.37, 4.43, 3.2, 3.91, 5.13, 6.51, 7.36, 8.53, 8.22, 9.34, 9.57, 9.84, 10.01, 9.0, 8.59, 8.94, 8.94, 8.94, 1.11, 1.11, 1.11, 1.11, 1.13, 0.59, 0.59, 0.59, 1.13, 2.51, 2.84, 2.79, 3.07, 2.68, 1.84, 0.55, -0.0, 0.57, 0.57, -0.0, -0.0, -0.61, -0.55, -0.0, -0.0, 0.57, 1.11, 1.11, 0.59, 0.59, -0.0, 0.59, 0.59, 1.27, 1.27, 1.8, 1.8, 1.8, 2.23, 2.23, 2.23, 2.23, 3.16, 4.37, 4.55, 4.6, 4.02, 4.44, 3.58, 3.58, 3.39, 3.35, 3.72, 3.72, 3.35, 5.6, 5.72, 5.72, 4.29, 5.49, 6.6, 7.76, 7.76, 6.79, 4.96, 5.98, 6.95, 7.81, 8.72, 9.49, 10.6, 11.59, 12.52, 13.38, 13.65, 14.09, 13.65, 12.09, 10.18, 8.95, 8.4, 6.7, 6.23, 7.02, 6.95, 7.22, 8.22, 9.26, 9.34, 9.34, 9.34, 10.01, 10.28, 9.57, 9.56, 9.56, 9.52, 9.52, 1.11, 1.11, 1.11, 1.58, 1.27, 1.13, 0.59, 0.59, 1.27, 1.8, 2.51, 2.79, 3.07, 2.68, 1.84, 0.55, -0.0, 0.57, 0.57, -0.0, -0.0, -0.54, -0.61, -0.0, -0.0, 0.57, 0.57, 1.11, 1.13, 0.51, -0.0, 0.59, 0.66, 1.27, 1.27, 1.27, 1.8, 1.8, 1.8, 2.23, 2.23, 2.51, 2.84, 3.63, 4.74, 4.0, 2.24, 0.6, 0.89, 2.17, 2.79, 3.43, 3.78, 3.72, 3.6, 3.6, 6.0, 5.72, 4.43, 5.58, 6.57, 7.85, 7.2, 6.32, 5.76, 6.95, 7.76, 8.4, 8.56, 9.24, 10.7, 11.59, 12.07, 12.52, 13.41, 13.86, 12.94, 12.27, 11.18, 10.18, 10.18, 8.51, 8.43, 8.08, 8.93, 8.93, 8.93, 10.01, 10.01, 10.04, 9.67, 10.43, 10.48, 10.15, 10.15, 10.09, 9.52, 9.52, 1.58, 1.58, 1.58, 1.58, 1.8, 1.27, 1.11, 1.11, 1.58, 1.8, 2.23, 2.79, 2.68, 2.5, 1.6, 0.55, 0.55, 0.57, 0.57, -0.0, -0.0, -0.54, -0.0, -0.0, 0.57, 0.57, 0.57, 1.11, 1.13, 0.51, -0.0, 0.57, 0.57, 1.27, 1.27, 1.27, 1.8, 1.8, 1.8, 2.23, 2.51, 2.51, 2.51, 2.51, 3.16, 4.89, 3.72, 0.8, 1.88, 2.86, 3.79, 4.07, 4.0, 4.0, 3.88, 3.7, 3.87, 4.11, 5.6, 5.6, 6.45, 7.37, 7.2, 6.01, 6.73, 6.73, 7.41, 8.93, 7.76, 8.33, 9.35, 10.45, 12.27, 13.31, 12.96, 12.49, 12.07, 12.04, 11.8, 10.89, 10.41, 8.22, 8.43, 9.01, 9.3, 10.19, 10.15, 10.09, 10.4, 10.4, 10.0, 10.55, 10.68, 11.02, 10.4, 10.4, 10.0, 10.0, 1.58, 1.58, 1.76, 1.76, 1.58, 1.58, 1.11, 1.11, 1.58, 2.23, 2.23, 2.23, 2.68, 2.5, 1.13, 0.55, 0.55, 0.57, 0.57, -0.0, -0.0, -0.0, -0.0, 0.57, 0.59, 0.51, 0.57, 0.57, 1.13, 0.59, -0.0, 0.57, 0.57, 0.57, 1.27, 1.27, 1.27, 1.8, 1.8, 2.51, 2.51, 2.51, 2.23, 2.79, 3.07, 4.98, 5.6, 3.73, 3.79, 4.41, 4.07, 4.37, 4.0, 4.27, 4.27, 4.11, 3.87, 3.98, 3.98, 5.73, 6.64, 7.37, 7.6, 7.2, 7.42, 7.2, 7.2, 8.4, 8.4, 8.48, 7.63, 8.95, 11.5, 14.42, 14.99, 12.96, 11.18, 10.73, 11.06, 11.18, 10.1, 9.74, 8.82, 9.76, 10.3, 10.8, 10.62, 11.52, 10.8, 10.32, 10.32, 10.75, 10.8, 10.8, 10.68, 10.27, 10.1, 10.1, 1.58, 1.58, 1.76, 1.76, 1.76, 1.58, 1.58, 1.58, 1.76, 2.48, 2.84, 2.79, 2.68, 2.21, 1.11, 0.55, 0.63, 0.57, 0.55, -0.0, -0.54, -0.0, -0.0, 0.59, 0.59, -0.0, -0.0, 0.57, 0.96, 0.59, 0.57, 0.57, 0.57, 0.66, 1.13, 1.13, 1.13, 1.6, 1.6, 1.84, 2.23, 2.23, 2.79, 3.07, 3.39, 3.98, 4.8, 5.31, 5.08, 4.55, 4.55, 4.27, 4.27, 4.4, 4.6, 4.11, 4.3, 3.98, 4.02, 4.47, 6.71, 6.94, 7.76, 7.47, 8.06, 7.85, 7.55, 8.38, 8.6, 9.46, 8.17, 8.4, 11.44, 15.02, 16.96, 15.12, 11.15, 9.7, 10.45, 11.45, 11.47, 10.94, 11.34, 10.62, 11.33, 11.56, 11.71, 11.04, 11.95, 10.62, 10.62, 10.62, 11.08, 10.96, 10.8, 10.32, 10.32, 10.32, 1.58, 1.58, 1.76, 1.76, 1.76, 1.58, 1.58, 1.76, 2.48, 2.48, 2.84, 2.79, 2.5, 2.5, 1.11, 0.55, 0.57, 0.57, -0.0, -0.0, -0.0, -0.0, -0.0, 0.59, 0.59, -0.0, -0.0, -0.0, 0.57, 0.96, 0.57, 0.57, 0.59, 0.59, 0.59, 1.13, 1.13, 1.13, 1.84, 1.84, 2.23, 2.23, 3.14, 3.6, 3.87, 3.98, 4.44, 4.77, 4.6, 4.52, 4.27, 4.27, 4.52, 4.52, 4.6, 4.6, 4.34, 4.43, 4.47, 4.47, 4.92, 6.94, 8.17, 7.37, 7.85, 7.85, 7.55, 7.6, 8.85, 9.74, 8.72, 9.24, 9.97, 13.76, 18.06, 17.59, 13.18, 10.68, 10.6, 11.95, 12.22, 12.22, 12.01, 12.18, 11.4, 11.94, 12.02, 11.61, 12.07, 11.18, 10.73, 10.28, 10.73, 10.7, 10.7, 10.45, 10.02, 10.02, 1.58, 1.58, 1.76, 1.76, 1.76, 1.76, 1.76, 1.76, 2.48, 2.86, 2.84, 2.79, 2.5, 2.21, 1.23, 0.57, 1.11, 0.57, -0.0, -0.0, -0.0, -0.0, 0.59, 0.59, -0.0, -0.0, -0.0, -0.0, 0.59, 0.59, 0.59, 0.59, 0.59, 0.59, 0.59, 1.13, 1.13, 1.13, 1.84, 1.84, 2.23, 2.84, 3.35, 4.11, 4.3, 4.47, 4.02, 3.98, 3.39, 3.6, 3.6, 4.11, 4.11, 4.11, 4.6, 4.77, 4.77, 4.44, 4.44, 4.47, 7.15, 7.01, 7.06, 7.63, 6.94, 7.37, 7.37, 7.55, 8.82, 9.03, 8.99, 9.97, 10.66, 12.49, 16.46, 17.44, 14.64, 12.58, 12.18, 12.33, 12.33, 12.33, 12.43, 12.5, 12.5, 11.62, 11.62, 11.16, 12.05, 11.15, 10.7, 10.7, 10.26, 10.28, 10.28, 10.18, 9.58, 9.58, 1.58, 1.58, 1.76, 1.76, 2.22, 1.76, 1.76, 2.22, 2.48, 2.86, 2.84, 2.79, 2.5, 1.61, 1.11, 1.11, 1.11, 0.57, -0.0, -0.0, -0.0, -0.0, 0.59, 0.59, -0.0, -0.0, -0.0, -0.0, 0.59, 0.59, 0.59, 0.59, 0.59, 0.59, 0.59, 0.59, 1.13, 1.33, 1.84, 1.84, 2.23, 2.84, 3.72, 4.11, 4.43, 4.02, 3.13, 2.68, 2.91, 2.68, 3.07, 3.6, 4.11, 4.11, 4.34, 4.34, 4.77, 4.44, 4.44, 4.47, 4.92, 7.01, 7.01, 7.21, 7.63, 7.63, 7.12, 7.63, 8.33, 8.77, 8.63, 10.41, 11.55, 12.49, 14.66, 16.05, 15.35, 14.21, 13.18, 12.42, 11.6, 11.6, 12.05, 12.07, 12.07, 11.18, 11.16, 12.04, 11.06, 10.6, 10.6, 10.16, 9.8, 9.39, 9.28, 9.4, 9.4, 9.4, 1.58, 1.58, 1.76, 1.76, 2.22, 2.22, 2.22, 2.48, 2.86, 2.86, 3.14, 2.79, 2.21, 1.6, 1.11, 1.11, 1.11, 0.57, -0.0, -0.0, -0.0, -0.0, 0.51, -0.0, -0.0, -0.0, -0.0, 0.59, 0.59, -0.0, -0.0, -0.0, 0.59, 0.59, 0.59, 0.59, 0.61, 1.16, 1.16, 1.84, 2.23, 2.84, 3.78, 4.11, 3.13, 2.24, 1.79, 1.79, 1.86, 2.5, 3.07, 3.6, 3.6, 4.11, 4.3, 4.34, 4.77, 4.88, 4.44, 4.47, 4.47, 4.92, 7.6, 6.65, 7.37, 8.85, 7.85, 8.33, 8.77, 8.77, 10.2, 9.68, 12.45, 11.96, 13.32, 14.4, 14.92, 15.13, 13.92, 12.33, 11.08, 10.7, 11.15, 11.15, 11.15, 11.18, 10.73, 10.28, 9.83, 9.83, 9.39, 9.36, 9.24, 9.06, 8.67, 8.8, 9.49, 9.49, 1.11, 1.11, 1.76, 1.76, 2.22, 2.22, 2.48, 2.48, 2.86, 3.16, 3.35, 3.07, 2.23, 1.8, 1.11, 1.13, 1.11, -0.0, -0.0, -0.0, -0.0, 0.51, 0.51, -0.0, -0.0, -0.0, -0.0, -0.0, -0.0, -0.0, -0.0, -0.0, -0.0, 0.59, 0.51, 0.51, 0.61, 1.16, 1.16, 1.61, 1.84, 2.51, 3.43, 4.54, 1.7, 0.0, 0.0, 0.63, 1.24, 2.21, 2.53, 3.14, 3.6, 4.11, 4.3, 4.34, 4.34, 4.88, 4.92, 4.47, 4.47, 4.47, 7.6, 6.71, 7.55, 8.85, 7.55, 8.45, 8.45, 8.45, 8.9, 9.7, 11.84, 13.19, 12.41, 12.86, 13.65, 14.84, 14.4, 12.62, 11.4, 10.52, 10.63, 10.63, 10.63, 10.49, 9.89, 9.75, 9.75, 9.75, 9.33, 9.33, 9.33, 9.24, 9.24, 9.08, 9.6, 9.34, 1.11, 1.11, 1.58, 1.8, 2.23, 2.23, 2.23, 2.48, 2.86, 3.43, 3.35, 2.79, 2.23, 1.58, 1.27, 1.13, 1.13, -0.0, -0.0, -0.0, -0.0, 0.51, 0.51, -0.0, -0.0, -0.0, -0.0, -0.0, -0.0, -0.0, -0.0, -0.0, -0.0, -0.0, 0.51, 0.61, 0.61, 0.61, 1.16, 1.16, 1.61, 1.84, 2.51, 3.63, 2.5, 0.45, 0.0, 0.57, 1.16, 2.23, 2.53, 3.14, 3.6, 3.7, 4.3, 4.34, 4.34, 4.88, 4.92, 4.92, 4.47, 4.47, 7.15, 6.71, 7.15, 8.49, 8.49, 8.05, 8.45, 8.45, 8.33, 9.97, 11.84, 12.74, 13.18, 12.49, 12.49, 13.76, 13.69, 12.18, 11.28, 10.96, 10.49, 10.49, 10.32, 10.52, 10.27, 10.15, 10.43, 10.43, 10.25, 9.75, 9.97, 9.49, 9.49, 9.11, 9.58, 9.6, 1.58, 1.58, 1.8, 1.8, 1.8, 2.23, 2.23, 2.48, 3.16, 3.35, 2.79, 2.53, 1.8, 1.58, 1.8, 1.6, 1.13, 0.57, -0.0, -0.0, 0.51, 0.51, 0.51, -0.0, -0.0, -0.0, -0.0, -0.0, -0.0, -0.0, -0.0, -0.0, -0.0, -0.0, -0.0, 0.61, 0.61, 0.61, 1.16, 1.16, 1.61, 1.88, 1.88, 2.23, 3.79, 2.4, 1.58, 1.84, 2.23, 2.51, 3.14, 3.45, 3.6, 3.82, 3.87, 4.3, 4.34, 4.88, 4.92, 4.92, 4.47, 4.47, 4.92, 7.6, 7.6, 8.05, 7.6, 8.05, 8.45, 8.33, 8.56, 9.06, 11.35, 12.94, 13.88, 12.27, 11.59, 12.04, 11.96, 10.96, 10.8, 10.8, 10.75, 10.52, 10.52, 10.79, 11.03, 11.18, 11.36, 10.93, 10.6, 10.6, 10.16, 9.7, 9.24, 9.24, 8.82, 9.58, 1.58, 1.58, 1.8, 1.8, 1.8, 1.8, 2.23, 2.58, 3.16, 3.35, 2.79, 2.23, 1.8, 1.58, 1.8, 1.6, 1.13, -0.0, -0.0, -0.0, 0.51, 0.51, 0.51, -0.0, -0.0, -0.0, -0.0, -0.0, -0.0, -0.0, -0.0, -0.0, -0.0, -0.0, -0.0, 0.61, 0.61, 0.61, 1.16, 1.16, 1.88, 1.61, 1.9, 1.9, 2.5, 4.6, 3.43, 3.48, 2.86, 3.16, 3.14, 3.6, 3.39, 3.82, 3.87, 4.3, 4.44, 4.88, 4.92, 4.92, 4.92, 4.47, 6.71, 7.15, 7.6, 8.05, 7.6, 8.94, 7.85, 8.14, 8.56, 9.06, 10.65, 11.35, 12.94, 13.99, 12.09, 11.36, 10.45, 10.68, 10.79, 11.21, 11.45, 11.03, 11.03, 11.28, 11.86, 11.84, 11.52, 11.15, 11.15, 10.7, 10.25, 9.8, 9.35, 8.9, 8.33, 8.33, 1.8, 1.8, 1.8, 1.8, 1.8, 1.8, 2.23, 2.58, 3.35, 3.35, 2.79, 1.6, 1.8, 1.8, 1.8, 1.8, 0.57, -0.0, -0.0, 0.59, 0.51, 0.51, 0.51, -0.0, -0.0, -0.0, -0.0, -0.0, -0.0, -0.0, -0.0, -0.0, -0.0, -0.0, -0.0, -0.0, 0.51, 0.51, 1.16, 1.4, 1.61, 1.9, 1.9, 1.86, 2.6, 3.39, 3.88, 4.0, 3.72, 3.35, 3.6, 3.39, 3.39, 3.53, 3.97, 3.98, 4.44, 4.88, 4.92, 4.92, 4.92, 4.88, 4.88, 7.6, 7.6, 7.94, 7.63, 8.38, 7.12, 8.06, 8.56, 8.77, 10.2, 9.7, 12.27, 13.8, 13.91, 12.98, 11.37, 10.96, 11.3, 12.22, 12.01, 11.71, 11.23, 11.95, 11.52, 12.04, 11.6, 11.62, 11.18, 10.73, 10.28, 9.83, 8.0, 7.37, 7.37, 7.37, 1.8, 1.8, 1.8, 1.8, 1.8, 1.8, 2.23, 2.84, 3.35, 2.79, 2.23, 1.6, 1.8, 1.8, 1.8, 1.27, 0.57, -0.0, -0.0, 0.59, 0.51, 0.59, 0.59, -0.0, -0.0, -0.0, -0.0, -0.0, -0.0, -0.0, -0.0, -0.0, -0.0, -0.0, -0.0, -0.0, 0.59, 0.61, 1.16, 1.2, 1.9, 1.9, 1.86, 1.86, 2.6, 3.07, 3.39, 3.6, 3.6, 3.2, 3.39, 3.39, 3.39, 3.53, 3.53, 3.98, 4.44, 4.44, 4.92, 4.92, 4.92, 4.89, 4.89, 7.6, 7.15, 7.5, 7.63, 8.06, 7.2, 8.06, 8.33, 8.9, 9.35, 10.25, 11.14, 12.27, 13.91, 14.05, 13.11, 11.75, 12.04, 12.22, 12.44, 11.71, 11.42, 11.53, 11.6, 11.6, 11.62, 11.62, 11.18, 10.73, 10.28, 7.6, 6.64, 6.45, 6.45, 6.45, 1.8, 1.8, 1.8, 1.8, 1.8, 2.23, 2.51, 3.14, 3.2, 2.79, 2.23, 1.6, 1.6, 1.6, 1.8, 1.27, 0.57, -0.0, 0.59, 0.59, 0.59, 0.59, 0.59, -0.0, -0.0, -0.0, -0.0, -0.0, -0.0, -0.0, -0.0, -0.0, -0.0, -0.0, -0.0, -0.0, 0.51, 0.61, 1.4, 1.2, 1.9, 1.9, 1.9, 2.23, 2.4, 2.4, 2.91, 2.91, 3.32, 3.32, 3.39, 3.39, 3.53, 3.53, 3.53, 4.02, 4.02, 4.47, 4.92, 4.92, 4.92, 5.36, 5.33, 5.33, 7.6, 7.5, 7.63, 7.12, 7.63, 7.85, 8.85, 8.05, 8.94, 9.8, 10.6, 11.36, 12.8, 13.91, 13.64, 12.7, 12.98, 12.65, 12.44, 12.14, 11.42, 11.08, 11.15, 11.62, 11.62, 11.18, 11.62, 8.46, 7.15, 5.73, 5.94, 6.45, 6.45, 6.45, 1.8, 1.8, 2.23, 2.23, 2.23, 2.51, 2.84, 3.07, 3.07, 3.07, 2.23, 1.6, 1.6, 1.6, 1.6, 1.13, 0.51, 0.59, 0.59, 0.59, 0.59, 0.59, 0.59, -0.0, -0.0, -0.0, -0.0, -0.0, -0.0, -0.0, -0.0, -0.0, -0.0, -0.0, -0.0, -0.0, 0.61, 1.16, 1.2, 1.2, 1.61, 1.9, 1.9, 1.9, 2.4, 2.4, 2.91, 2.91, 2.91, 2.91, 3.32, 3.39, 3.53, 3.53, 3.53, 4.02, 4.02, 4.47, 4.92, 4.92, 4.92, 5.36, 5.33, 5.33, 5.36, 7.94, 7.5, 7.1, 7.6, 8.0, 8.49, 8.49, 8.9, 9.8, 10.6, 10.89, 12.09, 12.8, 12.98, 12.7, 13.11, 12.98, 12.3, 11.71, 11.23, 10.96, 11.08, 11.18, 11.18, 11.62, 8.49, 5.81, 4.98, 5.4, 5.94, 6.88, 6.88, 6.88, 2.23, 2.23, 2.23, 2.23, 2.23, 2.51, 2.79, 3.2, 2.91, 2.21, 1.84, 1.6, 1.6, 1.6, 1.13, 1.13, 0.59, 0.59, 0.59, 0.59, 0.59, 0.59, 0.59, -0.0, -0.0, -0.0, -0.0, -0.0, -0.0, -0.0, -0.0, -0.0, -0.0, -0.0, -0.0, -0.0, 0.61, 1.0, 1.2, 1.2, 1.2, 1.61, 1.9, 1.9, 2.15, 2.4, 2.8, 2.91, 2.91, 2.91, 2.91, 3.51, 3.53, 3.53, 3.58, 4.02, 4.02, 4.47, 4.47, 4.92, 4.92, 5.36, 4.89, 4.89, 4.92, 7.6, 7.6, 7.6, 8.49, 8.05, 8.49, 8.49, 9.35, 9.7, 10.6, 10.89, 11.8, 12.53, 12.3, 12.45, 12.98, 13.49, 12.3, 11.23, 10.96, 11.08, 11.15, 11.18, 11.18, 8.49, 5.73, 4.4, 4.29, 5.51, 6.02, 6.45, 6.45, 6.45, 2.23, 2.23, 2.51, 2.23, 2.23, 2.79, 3.2, 3.39, 2.91, 2.21, 1.84, 1.6, 1.6, 1.6, 1.13, 0.59, 0.59, 0.59, 0.59, 0.59, 0.59, 0.59, -0.0, -0.0, -0.0, -0.0, -0.0, -0.0, -0.0, -0.0, -0.0, -0.0, -0.0, -0.0, -0.0, 0.61, 0.61, 0.53, 1.2, 1.2, 1.2, 1.61, 1.9, 1.9, 2.15, 2.15, 2.8, 2.91, 2.91, 2.91, 2.91, 3.07, 3.53, 3.53, 3.58, 4.02, 4.02, 4.02, 4.47, 4.92, 4.92, 4.92, 4.92, 4.44, 4.47, 7.15, 7.6, 7.6, 8.05, 8.05, 8.9, 8.9, 9.35, 9.8, 10.14, 10.6, 11.36, 11.61, 11.87, 12.3, 12.56, 13.91, 12.98, 11.52, 10.96, 10.18, 10.26, 10.26, 8.91, 6.21, 4.0, 3.72, 4.8, 5.51, 6.02, 6.45, 6.45, 6.45, 2.51, 2.51, 2.23, 2.23, 2.79, 2.79, 3.39, 2.91, 2.5, 1.61, 1.6, 1.6, 1.6, 1.13, 1.13, 0.59, 0.59, 0.59, 0.59, 0.59, 0.59, 0.59, -0.0, -0.0, -0.0, -0.0, -0.0, -0.0, -0.0, -0.0, -0.0, -0.0, -0.0, -0.0, -0.0, 0.61, 0.61, 0.61, 1.16, 1.2, 1.2, 1.61, 1.61, 1.9, 2.15, 2.15, 2.8, 2.8, 2.91, 2.91, 2.91, 3.07, 3.07, 3.53, 3.58, 4.02, 4.02, 4.02, 4.47, 4.92, 4.92, 4.92, 4.88, 4.44, 4.43, 5.81, 6.71, 7.1, 7.55, 8.45, 8.94, 8.94, 9.39, 9.8, 10.25, 10.6, 11.05, 11.36, 11.37, 12.3, 12.45, 12.7, 13.11, 12.45, 10.75, 9.15, 9.11, 9.58, 8.63, 6.02, 3.47, 3.82, 4.4, 5.4, 5.94, 6.45, 6.45, 6.45, 2.23, 2.23, 2.53, 2.53, 2.79, 3.2, 3.39, 2.91, 2.21, 1.84, 1.6, 1.6, 1.6, 1.13, 1.13, 1.13, 0.59, 0.59, 0.59, 1.13, 1.13, 0.51, -0.0, -0.0, -0.0, -0.0, -0.0, -0.0, -0.0, -0.0, -0.0, -0.0, -0.0, -0.0, -0.0, 0.61, 0.61, 0.61, 1.16, 1.4, 1.2, 1.61, 1.61, 1.9, 2.15, 2.15, 2.5, 2.8, 2.91, 2.91, 2.91, 3.07, 3.07, 3.53, 3.58, 4.02, 4.02, 4.02, 4.47, 4.92, 4.92, 4.92, 4.88, 4.44, 4.3, 5.73, 6.26, 6.65, 7.37, 8.0, 8.49, 8.49, 8.94, 9.83, 10.28, 10.25, 10.6, 10.89, 11.61, 11.87, 12.04, 12.45, 12.98, 12.98, 11.37, 7.98, 8.4, 8.91, 8.91, 6.98, 3.9, 2.97, 3.9, 5.26, 5.94, 6.45, 6.45, 6.45, 2.23, 2.53, 2.21, 2.21, 3.07, 3.39, 2.97, 2.91, 2.21, 1.84, 1.84, 1.84, 1.84, 1.13, 1.13, 1.13, 1.13, 1.13, 1.13, 1.13, 1.13, 0.66, 0.51, 0.59, 0.59, 0.59, -0.0, -0.0, -0.0, -0.0, -0.0, -0.0, -0.0, -0.0, -0.0, 0.61, 0.61, 0.61, 0.61, 1.16, 1.4, 1.88, 1.61, 1.9, 1.9, 2.15, 2.5, 2.8, 2.91, 2.91, 2.91, 3.07, 3.07, 3.53, 3.58, 4.02, 4.02, 4.02, 4.47, 4.47, 4.92, 4.92, 4.88, 4.44, 4.77, 4.77, 5.81, 6.26, 6.65, 7.37, 7.85, 8.33, 8.45, 8.49, 9.83, 10.25, 10.6, 10.89, 11.11, 11.37, 11.87, 12.3, 12.3, 12.8, 8.67, 8.4, 8.48, 9.11, 9.11, 7.89, 5.29, 3.39, 3.9, 4.82, 5.51, 5.94, 5.94, 5.94, 2.79, 2.79, 2.5, 2.68, 2.91, 3.09, 3.07, 2.5, 1.88, 1.61, 1.61, 1.61, 1.16, 1.16, 1.13, 1.13, 1.13, 1.13, 1.13, 1.13, 1.13, 1.13, 0.59, 0.59, 0.59, 0.59, 0.59, 0.59, -0.0, -0.0, -0.0, -0.0, -0.0, -0.0, -0.0, -0.0, 0.61, 0.61, 0.61, 1.16, 1.4, 1.88, 1.88, 1.88, 2.21, 2.5, 2.5, 2.5, 2.8, 2.91, 2.91, 2.91, 3.07, 3.53, 3.58, 4.02, 4.02, 4.02, 4.47, 4.47, 4.92, 4.92, 4.89, 4.88, 4.77, 4.6, 6.02, 6.26, 6.64, 6.94, 7.42, 7.85, 8.14, 8.06, 8.9, 9.24, 9.92, 10.18, 10.68, 11.11, 11.37, 11.79, 12.3, 11.61, 8.91, 8.4, 8.67, 9.11, 9.11, 8.63, 6.79, 4.66, 4.34, 4.82, 5.26, 5.51, 5.51, 5.51, 3.07, 3.07, 2.68, 2.91, 3.07, 3.07, 2.49, 2.15, 1.88, 1.88, 1.88, 1.88, 1.16, 1.16, 1.13, 1.13, 1.13, 1.13, 1.13, 1.13, 1.13, 1.13, 0.59, 0.59, 0.59, 0.59, 0.59, 0.59, 0.51, -0.0, -0.0, -0.0, -0.0, -0.0, -0.0, -0.0, 0.61, 0.61, 0.61, 1.16, 1.16, 1.4, 1.88, 1.88, 1.88, 2.5, 2.5, 2.5, 2.8, 2.91, 2.91, 2.91, 3.07, 3.53, 3.58, 4.02, 4.02, 4.02, 4.02, 4.47, 4.92, 4.89, 4.89, 4.88, 4.77, 4.6, 5.09, 5.33, 6.71, 7.1, 7.55, 8.0, 8.33, 8.3, 8.17, 8.3, 8.8, 9.77, 9.9, 10.18, 10.43, 11.37, 12.8, 11.18, 8.63, 8.19, 8.19, 8.63, 8.4, 8.55, 8.14, 7.35, 6.16, 5.94, 5.73, 5.4, 5.4, 5.4, 3.07, 3.07, 2.91, 2.91, 3.09, 3.07, 2.4, 2.15, 1.9, 1.9, 1.61, 1.88, 1.16, 1.13, 1.13, 1.13, 1.13, 1.13, 1.13, 1.13, 1.13, 1.13, 1.13, 0.59, 1.13, 1.13, 1.13, 1.13, 0.59, 0.51, 0.61, -0.0, -0.0, -0.0, 0.61, 0.61, 0.61, 0.61, 0.61, 1.16, 1.16, 1.16, 1.88, 1.88, 1.88, 2.21, 2.5, 2.5, 2.5, 2.91, 2.91, 2.91, 3.07, 3.53, 3.58, 3.58, 4.02, 4.02, 4.02, 4.47, 4.92, 4.89, 4.89, 4.89, 4.77, 4.6, 5.09, 5.24, 6.71, 6.71, 7.6, 8.0, 8.33, 8.56, 8.56, 8.56, 8.4, 8.95, 9.9, 9.9, 10.32, 10.85, 13.39, 12.3, 9.24, 7.63, 8.06, 8.3, 8.14, 8.24, 8.8, 8.67, 8.72, 8.06, 7.37, 6.02, 6.02, 6.02, 3.07, 3.07, 3.39, 3.53, 3.13, 2.63, 2.4, 2.4, 2.15, 2.15, 1.88, 1.61, 1.6, 1.6, 1.8, 1.8, 1.8, 1.8, 1.6, 1.13, 1.13, 1.13, 1.13, 1.33, 1.16, 1.33, 1.33, 1.33, 1.13, 1.33, 0.61, 0.61, 0.61, 0.61, 0.61, 0.61, 0.61, 0.61, 0.61, 0.61, 1.16, 1.16, 1.88, 1.88, 1.88, 1.88, 2.5, 2.5, 2.5, 2.8, 2.91, 2.91, 3.07, 3.09, 3.58, 3.58, 4.02, 4.02, 4.02, 4.47, 4.92, 4.89, 4.89, 4.89, 4.77, 4.77, 4.6, 4.6, 4.77, 6.71, 7.15, 7.6, 8.01, 8.33, 8.77, 8.77, 8.77, 9.49, 9.75, 10.18, 9.9, 11.5, 13.11, 13.11, 10.32, 7.76, 7.47, 8.14, 8.55, 8.55, 8.67, 8.67, 8.91, 9.06, 8.56, 7.85, 7.85, 7.85, 3.39, 3.39, 3.53, 3.58, 3.13, 2.63, 2.4, 2.4, 2.15, 2.21, 2.23, 1.84, 1.8, 1.8, 1.8, 1.8, 2.23, 1.8, 1.8, 1.8, 1.13, 1.13, 1.13, 1.33, 1.33, 1.33, 1.33, 1.33, 1.33, 1.33, 1.16, 1.16, 0.61, 0.53, 0.53, 0.53, 0.53, 0.53, 0.53, 0.53, 1.2, 1.4, 1.4, 1.88, 1.88, 1.88, 2.21, 2.5, 2.5, 2.8, 2.91, 3.07, 3.07, 3.09, 3.53, 3.58, 3.58, 4.02, 4.02, 4.47, 4.92, 4.92, 4.89, 4.89, 4.8, 4.77, 4.77, 4.6, 4.6, 6.64, 7.1, 7.6, 7.6, 8.0, 8.33, 8.77, 8.77, 9.24, 9.49, 9.97, 10.32, 11.09, 12.45, 13.23, 11.5, 9.24, 7.47, 8.4, 8.91, 8.48, 8.67, 9.11, 9.11, 8.99, 8.56, 8.77, 8.77, 8.77, 3.39, 3.39, 3.53, 3.58, 3.13, 2.63, 2.4, 2.4, 2.68, 2.53, 2.51, 2.23, 2.48, 2.22, 2.22, 2.22, 2.22, 2.22, 2.22, 1.8, 1.8, 1.6, 1.6, 1.6, 1.6, 1.6, 1.84, 1.84, 1.84, 1.84, 1.84, 1.16, 1.16, 1.16, 0.65, 0.65, 0.65, 0.65, 0.65, 1.2, 1.2, 1.2, 1.4, 1.88, 1.88, 1.88, 2.21, 2.5, 2.5, 2.5, 2.8, 2.91, 3.07, 3.09, 3.53, 3.58, 3.58, 4.02, 4.02, 4.47, 4.92, 4.92, 4.89, 4.89, 4.8, 4.77, 4.77, 4.19, 4.52, 6.45, 6.64, 7.15, 7.15, 7.42, 7.85, 8.33, 8.14, 8.56, 9.06, 9.75, 10.32, 10.85, 12.3, 13.23, 12.3, 9.9, 8.3, 8.4, 8.91, 9.11, 8.67, 8.67, 8.82, 8.77, 8.33, 8.06, 8.06, 8.06, 3.53, 3.53, 3.58, 3.58, 3.58, 3.07, 2.49, 2.91, 2.79, 2.84, 2.58, 2.48, 2.48, 2.22, 2.44, 2.86, 2.44, 2.44, 2.22, 2.22, 2.48, 2.23, 1.8, 1.8, 1.8, 1.8, 1.6, 1.6, 1.84, 1.84, 1.84, 1.84, 1.61, 1.16, 1.2, 1.2, 1.2, 1.2, 1.2, 1.2, 1.2, 1.2, 1.61, 1.61, 1.88, 1.88, 2.5, 2.5, 2.5, 2.5, 2.8, 2.91, 3.07, 3.07, 3.53, 3.58, 3.58, 4.02, 4.02, 4.47, 4.47, 4.92, 4.89, 4.89, 4.89, 4.77, 4.77, 4.6, 4.4, 4.9, 5.7, 7.15, 7.1, 7.54, 7.42, 8.29, 8.14, 8.56, 8.99, 9.66, 10.18, 11.11, 12.09, 13.01, 12.3, 10.32, 8.72, 8.4, 8.91, 9.11, 8.67, 8.67, 8.67, 8.56, 8.56, 7.76, 7.76, 7.76, 3.53, 3.53, 3.58, 3.58, 3.58, 3.09, 2.97, 3.2, 3.35, 3.16, 2.86, 2.86, 2.86, 2.86, 2.86, 2.86, 2.86, 2.86, 2.86, 2.6, 2.22, 2.48, 2.48, 2.48, 2.23, 2.23, 2.23, 2.23, 1.8, 1.84, 1.84, 1.84, 1.84, 1.61, 1.88, 1.2, 1.2, 1.2, 1.2, 1.2, 1.49, 1.9, 1.9, 1.9, 2.21, 2.5, 2.5, 2.5, 2.5, 2.5, 2.8, 2.91, 3.07, 3.07, 3.53, 3.53, 3.58, 3.58, 4.02, 4.47, 4.47, 4.92, 4.92, 4.89, 4.89, 4.8, 4.77, 4.6, 4.4, 4.8, 5.09, 7.1, 6.71, 7.94, 7.1, 7.85, 8.33, 8.77, 8.77, 9.24, 9.97, 10.89, 11.61, 12.53, 12.3, 10.85, 8.95, 8.72, 8.4, 8.91, 8.48, 8.67, 8.4, 8.4, 8.4, 6.64, 6.64, 6.64, 3.58, 3.58, 3.58, 3.58, 3.58, 3.53, 3.39, 3.6, 3.43, 3.43, 3.48, 3.15, 2.86, 2.86, 2.86, 2.86, 2.86, 2.86, 2.86, 2.86, 2.86, 2.6, 2.86, 2.48, 2.48, 2.48, 2.23, 2.23, 2.23, 2.51, 2.23, 2.23, 2.23, 2.23, 1.88, 1.88, 1.88, 1.61, 1.9, 1.9, 1.9, 1.9, 1.9, 1.9, 2.5, 2.5, 2.5, 2.5, 2.5, 2.8, 2.91, 2.91, 3.07, 3.07, 3.09, 3.53, 3.58, 3.58, 4.02, 4.02, 4.47, 4.92, 4.92, 4.89, 4.89, 5.24, 4.8, 4.6, 4.8, 4.8, 4.8, 5.24, 5.36, 7.6, 6.71, 7.55, 8.0, 8.45, 8.77, 9.24, 9.68, 10.45, 11.36, 12.09, 12.3, 11.37, 9.9, 9.13, 8.72, 8.72, 8.72, 8.72, 8.55, 8.55, 8.55, 6.82, 6.82, 6.82, 3.58, 3.58, 3.58, 3.58, 3.58, 3.53, 3.39, 3.6, 3.43, 3.43, 3.48, 3.15, 2.86, 2.86, 2.86, 2.86, 2.86, 2.86, 2.86, 2.86, 2.86, 2.6, 2.86, 2.48, 2.48, 2.48, 2.23, 2.23, 2.23, 2.51, 2.23, 2.23, 2.23, 2.23, 1.88, 1.88, 1.88, 1.61, 1.9, 1.9, 1.9, 1.9, 1.9, 1.9, 2.5, 2.5, 2.5, 2.5, 2.5, 2.8, 2.91, 2.91, 3.07, 3.07, 3.09, 3.53, 3.58, 3.58, 4.02, 4.02, 4.47, 4.92, 4.92, 4.89, 4.89, 5.24, 4.8, 4.6, 4.8, 4.8, 4.8, 5.24, 5.36, 7.6, 6.71, 7.55, 8.45, 8.45, 8.77, 9.24, 9.68, 10.14, 10.89, 11.61, 11.79, 11.09, 10.0, 9.36, 8.95, 8.95, 8.8, 8.8, 8.95, 8.95, 9.24, 6.18, 6.18, 6.18]}, {"header": {"dx": 0.06612293990616946, "dy": 0.0552356325346848, "nx": 98, "ny": 59, "la1": 35.046912555036876, "la2": 31.78801023549047, "lo1": -121.43107172385933, "lo2": -114.95102361305473, "refTime": "2026041023", "parameterCategory": 1, "parameterNumber": 3}, "data": [6.23, 6.68, 6.6, 6.47, 6.3, 6.3, 6.3, 6.47, 6.94, 7.4, 7.51, 6.56, 8.12, 7.35, 7.06, 6.79, 7.82, 7.82, 8.93, 9.6, 10.0, 10.62, 9.9, 9.42, 9.6, 10.0, 9.42, 9.42, 9.36, 9.49, 9.36, 8.0, 4.54, -1.13, -3.22, -2.76, -2.95, -1.98, -2.21, -1.4, 3.22, 7.53, 9.46, 9.63, 10.0, 9.81, 10.04, 10.04, 10.66, 10.66, 10.28, 9.96, 9.17, 8.01, 8.01, 7.51, 7.51, 7.12, 6.56, 6.43, 5.6, 5.93, 5.06, 5.0, 5.76, 7.97, 9.4, 10.01, 9.17, 8.18, 7.25, 6.43, 5.72, 4.87, 4.17, 3.29, 2.41, 0.75, 0.0, -1.99, -2.23, -1.6, -2.21, -2.68, -2.24, -1.2, 0.0, 0.0, 0.89, 2.8, 7.2, 8.56, 8.56, 8.56, 7.82, 7.81, 6.95, 6.95, 6.23, 6.68, 6.61, 6.51, 6.94, 6.79, 6.79, 6.94, 7.4, 7.87, 8.17, 9.9, 9.03, 8.3, 9.6, 9.2, 8.82, 9.63, 9.63, 9.75, 11.45, 11.03, 11.45, 11.03, 9.36, 9.9, 9.36, 9.66, 9.75, 9.75, 9.9, 9.9, 8.8, 3.16, -3.39, -4.4, -4.0, -3.39, -3.35, 0.0, 7.81, 11.55, 10.91, 9.49, 10.0, 10.04, 10.04, 10.04, 10.66, 10.66, 9.96, 9.17, 8.3, 7.8, 7.36, 7.51, 7.51, 6.56, 6.56, 5.93, 5.93, 5.72, 4.87, 5.76, 8.38, 10.04, 10.41, 9.62, 8.76, 8.05, 7.36, 6.52, 4.81, 4.06, 3.19, 2.51, 1.63, 0.75, 0.0, -1.99, -2.23, -1.6, -2.21, -2.68, -2.24, -1.2, 0.0, 0.0, 0.89, 2.8, 7.2, 8.56, 8.56, 8.56, 7.82, 7.81, 6.95, 6.95, 6.23, 6.23, 6.61, 7.06, 6.94, 6.94, 6.94, 7.4, 7.97, 8.42, 8.77, 8.48, 9.42, 8.63, 8.55, 9.24, 9.24, 9.54, 10.14, 11.84, 10.6, 10.91, 11.03, 11.45, 11.45, 9.66, 9.24, 9.49, 9.49, 9.97, 10.18, 10.25, 10.18, 8.06, 2.24, -4.47, -3.58, -3.9, -2.21, 4.98, 10.18, 10.96, 10.68, 10.0, 10.04, 10.04, 10.04, 10.04, 10.01, 9.96, 9.56, 8.76, 8.3, 8.01, 7.36, 7.51, 7.51, 6.56, 6.56, 6.56, 5.93, 5.72, 5.76, 8.38, 10.55, 11.02, 10.29, 9.96, 9.06, 8.31, 7.23, 5.73, 4.98, 4.21, 3.19, 2.44, 1.68, 0.89, 0.0, 0.0, 0.0, 0.0, 0.0, 0.0, -1.58, -2.21, -0.98, 0.0, 1.84, 5.49, 7.76, 8.56, 8.56, 8.3, 7.82, 7.06, 6.18, 6.18, 6.26, 6.26, 6.68, 7.06, 6.94, 6.94, 6.94, 7.51, 7.97, 8.86, 8.79, 8.48, 9.36, 8.55, 8.82, 9.54, 9.97, 10.14, 10.7, 10.7, 10.14, 9.97, 9.97, 9.24, 10.18, 10.46, 9.06, 9.24, 9.24, 10.14, 10.58, 10.6, 10.45, 9.97, 7.45, 5.81, 4.4, 2.2, 4.29, 9.24, 11.59, 11.36, 10.85, 10.4, 10.04, 10.04, 10.43, 10.04, 10.01, 9.17, 8.49, 8.3, 8.3, 8.01, 7.64, 7.64, 7.24, 6.7, 6.7, 6.33, 5.72, 5.63, 8.02, 10.96, 11.92, 11.26, 10.28, 9.2, 8.44, 7.85, 7.45, 5.62, 4.0, 3.47, 2.88, 1.58, 0.0, 2.68, 1.27, -0.0, 1.79, 2.21, 2.21, 2.21, 0.0, 0.0, 0.0, 1.99, 4.74, 7.2, 7.76, 8.06, 8.17, 7.82, 7.15, 5.89, 5.36, 5.89, 6.26, 6.26, 6.68, 6.61, 6.94, 6.94, 6.94, 7.07, 8.03, 8.92, 8.87, 8.67, 9.24, 8.56, 8.77, 9.7, 10.16, 10.25, 10.73, 10.73, 11.11, 10.65, 10.2, 10.65, 9.24, 10.65, 10.65, 10.65, 10.65, 9.68, 9.8, 10.25, 9.7, 8.8, 9.74, 9.03, 8.4, 7.81, 8.3, 10.6, 11.51, 10.68, 10.85, 10.04, 10.04, 10.43, 10.28, 10.41, 9.62, 9.17, 9.17, 8.3, 8.42, 8.42, 8.42, 7.64, 7.64, 7.24, 6.7, 6.7, 5.86, 7.59, 10.55, 12.3, 12.15, 11.28, 10.63, 9.89, 9.06, 8.05, 7.45, 6.47, 5.11, 4.21, 2.51, 0.0, 0.0, 4.4, 4.89, 1.8, 2.8, 3.58, 3.82, 3.72, 3.16, 3.79, 4.89, 5.95, 6.8, 7.2, 7.53, 7.53, 7.2, 7.2, 6.01, 5.1, 5.1, 6.45, 6.26, 6.26, 6.71, 6.68, 7.06, 6.51, 6.61, 7.13, 8.05, 8.49, 8.92, 8.79, 9.54, 8.77, 8.45, 9.39, 10.25, 10.73, 10.28, 10.28, 9.79, 9.8, 11.18, 11.62, 11.18, 10.73, 10.73, 11.11, 10.91, 10.84, 8.9, 8.94, 8.45, 8.0, 7.42, 7.71, 7.42, 7.15, 7.42, 9.68, 10.6, 11.45, 10.55, 10.63, 10.04, 10.63, 10.28, 10.01, 9.26, 8.85, 8.12, 8.85, 8.85, 8.85, 8.42, 8.12, 7.36, 7.36, 7.24, 6.7, 6.7, 9.42, 12.3, 12.98, 12.23, 11.64, 10.58, 8.76, 7.9, 7.49, 6.6, 6.47, 5.73, 4.21, 1.69, 0.0, 4.02, 6.57, 6.94, 3.79, 4.4, 4.34, 4.92, 4.98, 5.4, 5.6, 6.16, 6.21, 6.21, 6.57, 6.57, 6.7, 6.21, 5.37, 4.68, 4.68, 5.69, 6.82, 6.26, 6.26, 6.26, 6.68, 6.61, 6.47, 6.16, 6.71, 7.6, 8.05, 8.49, 8.42, 9.7, 9.35, 9.83, 9.39, 9.83, 10.28, 9.83, 9.36, 8.46, 8.94, 9.39, 10.28, 10.28, 9.83, 10.28, 10.65, 10.41, 8.99, 9.74, 8.49, 8.05, 7.6, 7.55, 7.63, 7.6, 8.18, 8.4, 8.77, 10.65, 10.84, 11.03, 10.94, 10.94, 9.67, 10.01, 8.93, 8.93, 9.42, 9.42, 8.93, 8.85, 8.85, 8.42, 8.12, 7.78, 6.98, 6.84, 6.57, 8.42, 11.18, 13.01, 12.98, 12.62, 11.25, 9.8, 9.06, 7.38, 6.65, 5.73, 4.91, 4.52, 3.23, 1.84, 3.58, 5.95, 7.12, 8.0, 8.45, 5.94, 5.26, 4.47, 4.47, 4.77, 4.38, 4.98, 4.98, 4.98, 5.51, 5.16, 5.2, 4.89, 4.29, 4.58, 5.37, 6.55, 7.2, 6.26, 6.26, 6.26, 6.23, 6.16, 6.16, 6.23, 6.71, 7.15, 7.58, 7.58, 7.6, 9.39, 9.83, 10.28, 8.94, 9.39, 9.39, 9.39, 9.39, 8.05, 7.6, 8.45, 8.9, 8.49, 8.49, 8.49, 9.74, 9.46, 9.46, 9.39, 9.39, 8.94, 8.49, 6.51, 6.16, 5.82, 6.55, 8.18, 9.04, 9.46, 9.45, 9.32, 9.09, 9.46, 9.66, 9.0, 8.53, 9.0, 9.08, 7.97, 8.22, 8.53, 8.85, 8.53, 8.22, 7.48, 6.7, 6.7, 6.83, 9.77, 12.27, 13.01, 12.7, 11.88, 10.86, 9.7, 8.18, 7.38, 5.67, 4.04, 2.35, 1.62, 0.0, 0.0, 2.95, 5.69, 7.2, 8.77, 8.94, 8.46, 6.26, 4.38, 2.97, 2.68, 2.68, 2.4, 3.35, 4.34, 4.34, 3.9, 3.6, 3.79, 4.43, 5.49, 6.6, 6.8, 7.2, 5.81, 6.23, 6.26, 6.23, 6.16, 5.7, 5.78, 6.26, 6.71, 6.68, 6.23, 6.16, 8.94, 8.94, 8.94, 8.94, 8.9, 8.9, 8.9, 9.39, 9.83, 9.39, 8.44, 8.44, 7.6, 8.05, 7.6, 8.38, 8.82, 8.49, 8.49, 8.05, 7.6, 7.01, 5.6, 4.54, 4.74, 6.9, 6.98, 7.81, 9.04, 8.93, 8.37, 8.73, 8.15, 7.35, 8.53, 9.76, 10.01, 9.0, 9.08, 7.97, 8.31, 8.64, 9.0, 8.64, 8.31, 7.59, 7.68, 8.43, 10.68, 12.71, 11.87, 12.15, 11.28, 10.51, 10.01, 8.84, 7.25, 4.98, 2.41, 0.72, 0.0, -2.31, -3.58, 1.03, 6.01, 8.4, 9.68, 8.94, 9.35, 7.92, 5.75, 2.6, -0.0, -0.0, 0.0, 2.68, 2.24, 2.24, 2.24, 2.4, 3.6, 5.6, 6.16, 6.57, 6.57, 6.57, 5.78, 5.78, 5.81, 5.78, 5.7, 5.26, 5.78, 6.26, 6.71, 6.26, 5.78, 5.24, 4.8, 5.34, 7.15, 7.1, 6.88, 6.57, 7.21, 8.38, 8.94, 8.94, 8.94, 8.94, 8.49, 7.6, 7.6, 8.05, 8.05, 7.6, 7.15, 6.71, 6.26, 6.07, 5.21, 4.11, 4.11, 5.21, 6.98, 7.56, 7.06, 6.95, 6.95, 6.64, 5.89, 7.35, 8.38, 9.0, 9.34, 9.34, 8.31, 8.38, 8.38, 8.38, 9.04, 9.04, 9.04, 8.79, 8.43, 9.66, 11.8, 13.01, 13.57, 12.56, 11.9, 11.2, 10.75, 9.66, 7.11, 5.11, 4.06, 2.89, 0.0, -5.15, -5.29, 0.88, 7.41, 9.9, 10.18, 9.83, 9.72, 9.33, 7.89, 4.47, -0.0, -0.99, -0.0, -0.0, -0.0, -0.0, -0.0, 2.68, 4.47, 5.73, 6.45, 6.45, 6.45, 6.16, 5.78, 5.81, 5.81, 5.34, 5.24, 4.89, 5.36, 5.81, 6.26, 5.81, 5.36, 4.77, 4.6, 4.6, 5.94, 5.51, 4.98, 2.86, 2.86, 3.14, 5.26, 5.36, 6.26, 6.71, 7.6, 7.15, 6.51, 6.71, 6.71, 6.26, 6.26, 5.7, 5.7, 4.6, 4.19, 5.01, 5.06, 6.98, 6.01, 6.18, 6.04, 5.76, 6.18, 6.01, 6.32, 7.44, 7.76, 8.42, 8.03, 8.38, 10.04, 10.04, 10.04, 10.55, 10.55, 10.96, 11.02, 10.0, 8.95, 10.89, 12.74, 13.49, 12.98, 12.79, 12.65, 12.26, 11.82, 11.47, 9.8, 8.22, 8.31, 7.06, 0.81, -5.82, -5.75, 2.24, 8.67, 11.95, 11.62, 11.14, 9.89, 9.49, 8.63, 6.4, 2.4, -0.98, -0.87, -1.13, -0.99, -0.99, -0.0, 2.21, 4.02, 4.92, 5.81, 6.2, 6.17, 5.94, 5.81, 5.81, 5.36, 5.33, 4.77, 4.44, 4.92, 5.81, 5.81, 5.36, 4.92, 4.44, 4.3, 4.11, 4.11, 3.7, 2.79, 2.23, 1.6, 1.61, 1.9, 1.7, 2.68, 6.26, 6.26, 6.07, 4.84, 2.91, 4.92, 5.81, 5.21, 5.6, 5.6, 4.54, 4.54, 4.74, 4.95, 5.36, 5.89, 5.21, 5.21, 5.21, 5.36, 6.32, 6.63, 7.76, 9.45, 9.32, 9.32, 10.0, 10.85, 11.5, 12.8, 13.49, 12.58, 13.01, 12.45, 10.55, 9.36, 11.36, 13.18, 13.29, 12.56, 12.15, 12.62, 13.25, 13.89, 14.49, 13.43, 12.56, 11.04, 8.32, 2.29, -4.58, -5.24, 1.84, 10.89, 13.31, 11.98, 10.96, 10.43, 10.0, 9.05, 7.81, 4.46, -0.0, -1.83, -1.83, -1.66, -0.79, -0.0, -0.0, 2.21, 4.77, 5.81, 5.81, 6.17, 6.2, 5.81, 5.36, 5.36, 5.33, 4.77, 4.44, 4.92, 5.36, 5.36, 5.36, 4.92, 4.47, 3.98, 4.11, 4.11, 3.82, 3.39, 2.91, 2.21, 1.88, 1.2, 1.24, 1.26, 1.86, 1.61, 1.16, 1.16, 1.88, 2.49, 3.13, 4.98, 5.21, 5.15, 5.15, 5.15, 5.49, 4.95, 5.1, 4.96, 4.2, 4.34, 4.5, 5.24, 6.18, 8.06, 9.03, 9.97, 9.63, 10.05, 10.46, 9.83, 10.75, 11.86, 12.33, 14.11, 14.31, 13.43, 11.53, 9.03, 10.45, 12.71, 11.87, 10.96, 10.96, 12.04, 12.7, 13.89, 15.24, 14.58, 13.75, 11.66, 8.64, 2.82, -3.55, -3.77, 5.24, 12.56, 13.49, 12.22, 10.79, 9.45, 9.43, 8.3, 7.59, 6.32, 2.84, -2.2, -3.11, -2.29, -1.7, -0.79, -0.0, 1.6, 4.29, 5.73, 6.26, 6.64, 6.88, 5.36, 5.36, 5.36, 4.89, 4.77, 4.44, 4.47, 5.36, 5.36, 5.36, 4.89, 4.02, 4.02, 3.98, 4.3, 3.87, 3.53, 3.07, 2.63, 2.68, 2.21, 1.2, 0.71, -0.0, -0.0, -0.0, -0.0, 1.16, 2.5, 3.07, 3.53, 5.2, 5.72, 4.74, 5.49, 5.82, 5.77, 5.1, 4.34, 3.63, 3.6, 4.58, 6.9, 8.06, 8.85, 9.03, 8.06, 9.46, 9.04, 9.45, 9.63, 9.97, 10.2, 10.2, 10.41, 8.95, 10.24, 10.94, 11.16, 10.18, 11.36, 12.04, 12.04, 12.04, 10.96, 10.96, 11.21, 11.62, 12.62, 10.01, 8.85, 6.7, 3.55, 0.0, 4.11, 10.55, 13.75, 13.43, 12.27, 11.26, 9.67, 8.31, 7.22, 6.05, 5.86, 3.77, 0.0, -2.48, -0.88, -0.0, -0.98, -0.0, 2.84, 5.2, 6.07, 7.15, 7.1, 7.37, 5.36, 5.36, 5.36, 5.33, 4.77, 4.34, 4.47, 4.92, 5.36, 4.92, 4.44, 3.98, 3.58, 3.58, 3.98, 4.34, 3.98, 3.13, 2.24, 3.07, 3.39, 2.91, 1.26, -0.0, -0.54, -0.0, 1.16, 2.23, 3.07, 3.39, 3.58, 3.82, 5.72, 6.08, 6.52, 7.6, 6.32, 5.1, 3.7, 3.4, 4.58, 6.9, 7.63, 8.06, 8.06, 8.41, 8.6, 8.48, 8.0, 8.4, 8.4, 8.4, 8.06, 6.9, 7.28, 6.98, 6.95, 7.59, 9.23, 10.94, 10.18, 10.4, 9.86, 10.4, 10.8, 10.8, 11.03, 9.86, 7.59, 6.5, 5.9, 5.21, 4.58, 6.6, 10.32, 12.39, 12.89, 12.62, 11.2, 10.58, 8.85, 7.78, 6.31, 5.28, 4.6, 3.63, 2.67, 2.8, 4.84, 4.98, 4.0, 3.47, 5.36, 6.66, 7.54, 7.54, 7.37, 7.37, 5.36, 5.36, 5.36, 5.33, 4.8, 4.77, 4.34, 4.44, 4.92, 4.88, 4.44, 3.98, 3.53, 3.53, 4.02, 4.44, 4.44, 3.58, 1.79, 2.17, 3.82, 4.44, 2.68, 0.0, -1.34, -0.0, 2.4, 3.35, 3.7, 3.98, 4.02, 3.82, 3.72, 5.72, 6.52, 6.8, 6.11, 5.24, 5.03, 5.37, 6.16, 7.12, 8.06, 8.06, 8.06, 8.06, 8.06, 7.6, 7.6, 7.07, 7.44, 6.98, 6.98, 6.98, 6.63, 6.01, 5.31, 6.3, 8.22, 9.3, 8.42, 8.37, 7.27, 7.27, 7.56, 7.9, 7.06, 7.59, 6.5, 6.24, 4.34, 4.83, 6.01, 8.42, 10.66, 11.28, 11.2, 10.75, 10.34, 9.6, 8.18, 7.36, 6.15, 6.04, 5.36, 6.01, 5.1, 7.06, 7.76, 8.42, 7.76, 7.03, 7.92, 8.05, 7.15, 7.15, 6.66, 6.66, 4.92, 4.92, 4.92, 4.89, 4.8, 4.77, 4.77, 4.34, 4.44, 4.44, 4.43, 3.98, 3.53, 3.53, 3.98, 4.47, 4.92, 4.47, 1.7, 1.2, 3.07, 4.89, 4.44, 0.71, -1.58, 0.0, 3.58, 4.43, 4.3, 4.44, 4.02, 3.82, 3.82, 6.0, 5.75, 6.4, 6.21, 6.52, 6.4, 7.06, 7.63, 7.37, 8.06, 6.7, 8.06, 8.06, 7.6, 6.63, 6.63, 6.63, 6.01, 6.32, 6.64, 6.64, 6.64, 6.64, 5.59, 5.21, 6.3, 7.59, 7.59, 6.3, 5.21, 5.21, 4.2, 4.26, 4.96, 5.59, 6.58, 6.5, 5.32, 4.83, 6.7, 7.64, 8.76, 8.95, 9.11, 8.99, 8.99, 8.18, 7.79, 7.24, 6.7, 6.24, 6.64, 7.06, 6.73, 7.76, 7.76, 7.76, 7.33, 7.32, 8.55, 9.11, 8.33, 7.11, 6.21, 6.21, 4.92, 4.92, 4.92, 4.92, 4.89, 4.8, 4.6, 4.11, 3.87, 3.87, 3.87, 3.98, 3.53, 3.98, 4.44, 4.47, 5.36, 5.33, 2.91, 0.45, 2.44, 4.8, 5.33, 2.79, 0.0, 0.63, 4.02, 4.47, 4.47, 4.47, 4.44, 3.87, 3.82, 3.82, 4.3, 5.51, 5.73, 6.51, 6.4, 6.4, 6.64, 7.06, 6.64, 7.06, 6.9, 7.28, 6.63, 6.01, 5.31, 5.31, 5.31, 5.31, 6.32, 6.32, 6.32, 6.32, 6.01, 6.01, 6.3, 5.98, 5.98, 5.1, 3.87, 3.7, 2.58, 1.75, 1.73, 2.82, 4.37, 4.23, 5.08, 5.6, 6.52, 6.52, 7.13, 7.13, 6.6, 6.6, 6.4, 6.31, 6.56, 6.45, 6.7, 6.58, 6.95, 6.95, 7.27, 7.41, 6.95, 6.95, 7.06, 7.44, 8.67, 9.6, 8.95, 8.17, 6.4, 6.4, 4.47, 4.47, 4.47, 4.47, 4.92, 4.8, 4.6, 4.27, 4.11, 4.11, 3.87, 3.87, 3.53, 3.98, 4.47, 6.71, 5.34, 5.34, 3.7, 1.79, 3.07, 4.6, 4.92, 6.2, 4.82, 6.26, 4.92, 6.71, 6.26, 4.88, 4.34, 4.11, 3.87, 3.82, 3.39, 3.53, 2.91, 2.5, 3.93, 4.43, 4.54, 4.89, 5.06, 5.72, 5.69, 5.03, 5.31, 4.71, 3.8, 3.8, 5.31, 6.01, 6.63, 6.98, 6.32, 6.64, 6.01, 6.3, 5.98, 5.1, 4.6, 3.61, 2.49, 1.67, 1.67, 0.89, 0.89, 0.89, 0.84, 1.33, 3.73, 5.62, 6.42, 5.56, 4.66, 4.04, 3.28, 3.28, 3.36, 3.44, 5.14, 5.29, 5.9, 6.14, 6.42, 6.42, 6.7, 6.05, 6.83, 6.58, 7.68, 8.43, 9.36, 9.74, 9.65, 8.79, 7.41, 7.41, 4.47, 4.47, 4.47, 4.47, 4.47, 4.88, 4.6, 4.4, 4.27, 3.88, 4.11, 3.6, 3.39, 3.58, 4.44, 4.8, 4.89, 4.92, 6.64, 6.26, 5.81, 4.44, 4.02, 5.81, 6.2, 6.2, 6.26, 4.92, 4.92, 4.44, 4.34, 4.19, 4.11, 3.87, 3.39, 2.91, 2.8, 2.21, 1.88, 1.84, 2.48, 2.44, 2.2, 2.84, 2.84, 4.14, 4.14, 3.8, 3.8, 3.8, 5.31, 6.63, 7.07, 7.44, 6.11, 6.32, 6.58, 5.49, 4.83, 3.77, 2.49, 2.49, 1.22, 1.16, 0.89, 0.84, 0.89, 0.94, 0.85, 1.69, 3.32, 4.81, 4.88, 3.18, 1.56, 0.0, -0.81, -0.79, 0.83, 1.76, 2.59, 3.49, 4.2, 5.06, 5.52, 5.18, 5.18, 5.18, 5.78, 6.64, 8.42, 9.42, 9.6, 10.0, 9.52, 9.0, 8.31, 8.31, 4.02, 4.47, 4.47, 4.47, 4.47, 4.44, 4.77, 4.6, 4.8, 4.4, 4.27, 3.35, 3.07, 3.53, 4.47, 4.77, 4.34, 4.34, 4.44, 5.81, 5.81, 4.02, 3.58, 3.13, 3.53, 3.87, 4.43, 4.47, 4.47, 4.43, 4.3, 4.11, 4.11, 4.11, 3.6, 3.07, 2.68, 2.5, 1.88, 1.84, 1.8, 1.76, 2.44, 2.2, 2.2, 2.82, 2.54, 2.69, 2.69, 4.14, 6.28, 7.28, 7.07, 6.98, 6.64, 6.01, 5.76, 5.86, 4.6, 2.39, 2.39, 1.22, 1.22, 1.16, 0.89, 0.94, 0.89, 1.75, 2.57, 3.39, 4.06, 4.76, 4.01, 1.57, 0.0, -3.25, -4.4, -3.29, -0.85, 0.82, 2.59, 3.36, 3.36, 3.78, 4.25, 4.25, 4.07, 5.38, 6.24, 7.02, 8.42, 9.65, 10.04, 9.52, 8.94, 8.6, 7.9, 7.9, 4.02, 4.47, 4.47, 4.47, 4.47, 4.44, 4.34, 4.6, 4.6, 4.8, 4.0, 3.43, 2.79, 3.39, 4.02, 4.88, 4.44, 3.98, 3.53, 3.53, 3.53, 3.58, 3.58, 3.13, 3.07, 3.39, 3.98, 4.47, 4.47, 3.98, 3.87, 3.87, 3.7, 4.11, 3.6, 3.6, 3.07, 3.07, 2.53, 2.23, 2.51, 2.23, 2.22, 1.76, 1.94, 2.2, 2.54, 2.69, 2.54, 5.37, 6.9, 7.6, 6.63, 6.63, 6.32, 6.64, 6.64, 6.83, 5.1, 3.7, 2.44, 1.75, 1.75, 1.67, 1.75, 2.51, 2.82, 4.26, 5.21, 7.56, 7.51, 8.46, 7.2, 3.95, -1.84, -2.53, -2.29, -1.63, -0.76, 0.74, 2.6, 3.85, 4.3, 4.13, 4.25, 4.4, 4.96, 6.64, 7.68, 7.33, 8.88, 9.52, 9.56, 8.59, 8.27, 7.9, 8.22, 8.22, 4.02, 4.02, 4.47, 4.47, 4.02, 3.98, 3.98, 4.34, 4.6, 4.4, 4.0, 3.43, 2.84, 3.07, 4.02, 4.44, 4.44, 4.02, 3.58, 3.13, 3.53, 3.98, 4.02, 3.58, 3.54, 3.98, 3.98, 3.98, 4.02, 3.98, 3.53, 3.82, 3.87, 3.7, 3.6, 3.6, 3.35, 2.79, 2.79, 2.51, 2.51, 2.23, 2.22, 1.76, 2.22, 2.2, 2.4, 2.82, 4.56, 6.08, 6.9, 6.28, 6.63, 6.63, 6.63, 6.32, 6.73, 6.53, 6.24, 4.12, 3.27, 3.45, 3.27, 4.26, 4.5, 5.53, 6.01, 6.32, 7.35, 7.68, 8.22, 7.51, 5.67, 4.48, 3.91, 3.35, 2.29, 1.63, 1.58, 2.28, 2.95, 4.17, 4.17, 4.3, 5.29, 6.18, 7.06, 7.76, 8.79, 9.04, 8.93, 8.94, 8.93, 7.9, 7.52, 7.52, 7.9, 7.9, 3.98, 3.98, 4.47, 4.47, 3.98, 3.98, 3.98, 3.98, 4.3, 4.11, 3.88, 3.43, 2.51, 2.53, 3.39, 4.47, 4.44, 4.02, 3.58, 3.58, 4.02, 4.44, 4.02, 4.02, 4.02, 3.98, 3.98, 3.98, 3.54, 3.53, 3.53, 3.98, 3.87, 3.82, 3.6, 3.6, 3.35, 3.14, 3.14, 2.84, 2.51, 2.23, 2.48, 2.22, 2.22, 1.76, 2.82, 2.82, 4.14, 5.69, 6.63, 5.69, 5.69, 5.69, 6.28, 6.63, 5.69, 6.32, 6.58, 6.3, 5.24, 5.24, 5.53, 5.89, 5.89, 7.06, 8.18, 9.1, 7.76, 6.95, 5.21, 3.58, 4.12, 4.98, 5.46, 5.8, 4.48, 3.68, 2.42, 1.56, 1.48, 1.48, 2.25, 4.71, 6.64, 7.41, 7.76, 8.42, 9.04, 9.0, 8.65, 8.27, 7.52, 7.22, 7.22, 7.22, 7.9, 7.9, 3.98, 3.98, 3.98, 3.98, 3.98, 3.54, 3.53, 3.98, 3.87, 3.6, 3.72, 2.84, 2.51, 2.23, 3.39, 4.47, 4.47, 4.02, 4.02, 4.02, 4.47, 4.44, 4.47, 4.02, 3.98, 3.98, 3.98, 3.54, 3.53, 3.53, 3.53, 3.98, 3.98, 3.82, 3.6, 3.6, 3.35, 3.14, 3.14, 2.84, 2.84, 2.86, 2.48, 2.22, 2.22, 1.19, 1.16, 1.12, 2.29, 2.77, 2.8, 4.14, 3.91, 5.37, 5.69, 5.69, 5.03, 4.58, 5.59, 6.64, 6.95, 5.53, 5.1, 5.89, 5.89, 7.41, 8.82, 8.42, 7.68, 4.56, 2.49, 1.61, 3.56, 4.75, 5.56, 4.81, 3.71, 2.45, 1.13, 0.0, 0.0, 0.0, 2.99, 6.44, 7.81, 7.41, 7.76, 8.38, 8.31, 8.57, 8.42, 7.15, 7.15, 7.48, 6.79, 7.22, 7.52, 7.52, 3.98, 3.98, 3.98, 3.98, 3.54, 3.53, 3.53, 3.53, 3.82, 3.35, 3.14, 2.84, 1.84, 1.84, 3.07, 4.47, 4.47, 4.02, 3.98, 4.02, 4.47, 4.44, 4.47, 4.02, 3.98, 3.98, 3.87, 3.98, 3.53, 3.58, 3.58, 3.98, 3.98, 3.82, 3.6, 3.6, 3.35, 3.35, 3.14, 2.84, 2.84, 3.16, 2.86, 2.86, 2.2, 1.07, 0.53, 0.0, 0.57, 1.12, 1.67, 1.88, 3.68, 5.37, 5.69, 5.69, 5.03, 5.37, 5.69, 5.59, 6.3, 6.3, 5.1, 5.1, 6.01, 7.81, 8.82, 8.42, 5.76, 4.2, 2.59, 2.32, 3.28, 4.1, 4.95, 5.51, 4.31, 2.18, 0.86, 0.0, 0.0, 0.82, 4.84, 6.94, 7.67, 7.68, 8.38, 8.31, 8.64, 8.22, 8.3, 7.36, 7.15, 6.79, 7.22, 7.48, 7.52, 7.52, 3.87, 3.87, 3.87, 3.98, 3.53, 3.53, 3.09, 3.53, 3.2, 3.35, 2.84, 2.23, 1.84, 1.61, 3.07, 4.47, 4.47, 4.02, 3.98, 4.02, 4.47, 4.44, 4.44, 4.02, 3.98, 3.98, 3.87, 3.98, 3.53, 3.58, 3.58, 3.53, 3.53, 3.82, 3.6, 3.6, 3.6, 3.35, 3.35, 3.35, 3.35, 3.43, 3.48, 2.86, 1.7, 0.53, 0.0, 0.0, 0.0, 0.61, 1.23, 1.76, 2.48, 2.86, 4.43, 4.29, 3.91, 4.56, 5.49, 5.06, 4.96, 4.34, 4.88, 5.24, 7.21, 7.82, 8.43, 6.53, 5.06, 3.36, 2.49, 1.64, 2.33, 4.07, 4.81, 4.91, 4.16, 3.73, 2.49, 1.75, 1.84, 4.43, 6.4, 7.03, 7.32, 7.96, 9.0, 8.53, 8.22, 7.64, 7.36, 7.73, 7.51, 7.36, 7.15, 6.71, 6.71, 6.71, 3.87, 3.87, 3.87, 3.87, 3.39, 3.53, 3.53, 3.53, 3.39, 3.14, 2.84, 2.23, 1.84, 1.61, 3.07, 4.44, 4.47, 3.98, 3.98, 4.02, 4.47, 4.88, 4.44, 4.47, 4.02, 3.98, 3.87, 3.87, 3.53, 3.53, 3.58, 3.53, 3.53, 3.82, 3.82, 3.6, 3.6, 3.6, 3.35, 3.35, 3.35, 3.35, 3.16, 3.12, 2.84, 1.73, 0.0, -0.55, 0.0, 0.0, 1.13, 2.23, 2.48, 2.48, 2.23, 2.8, 4.29, 4.29, 5.15, 4.58, 3.77, 3.45, 3.45, 5.1, 7.44, 8.37, 6.95, 5.21, 3.49, 2.59, 1.63, 0.83, 0.0, 0.84, 2.41, 2.49, 2.41, 3.23, 3.39, 4.07, 4.2, 4.46, 5.1, 6.24, 6.95, 7.94, 8.22, 8.42, 7.64, 7.64, 7.64, 7.51, 7.9, 7.36, 6.62, 6.62, 5.86, 5.86, 3.87, 3.87, 3.87, 3.7, 3.82, 3.39, 3.53, 3.53, 3.82, 3.6, 3.14, 2.23, 1.84, 1.61, 3.07, 4.44, 4.47, 3.98, 3.98, 4.47, 4.92, 4.89, 4.88, 4.47, 4.02, 3.98, 3.98, 3.87, 3.39, 3.09, 3.58, 3.53, 3.97, 3.82, 3.82, 3.82, 3.6, 3.6, 3.6, 3.35, 3.35, 3.14, 2.84, 4.54, 4.74, 2.86, 0.0, -1.2, 0.0, 0.54, 2.23, 2.86, 3.15, 2.48, 1.8, 1.8, 3.0, 4.29, 4.43, 3.72, 2.82, 1.75, 3.6, 6.32, 7.41, 6.95, 6.04, 4.2, 2.57, 1.68, 0.82, 0.83, 0.0, 0.0, 0.0, 0.0, 0.81, 2.45, 3.19, 3.39, 3.39, 3.97, 5.06, 6.35, 7.44, 7.44, 7.44, 7.51, 7.51, 6.7, 6.45, 6.08, 5.99, 6.53, 6.53, 5.77, 5.86, 5.86, 3.7, 3.7, 3.7, 3.7, 3.6, 3.82, 3.87, 3.87, 3.7, 3.6, 3.35, 2.23, 1.61, 1.88, 3.2, 4.44, 4.44, 3.98, 3.98, 4.47, 4.92, 4.89, 4.47, 4.02, 3.98, 3.98, 3.98, 3.87, 3.39, 3.09, 3.58, 3.98, 3.98, 3.82, 3.82, 3.82, 3.6, 3.6, 3.6, 3.35, 3.14, 3.14, 3.14, 3.14, 3.16, 3.91, 2.48, 1.6, 2.5, 3.43, 3.79, 3.49, 2.86, 2.86, 2.22, 1.58, 1.11, 1.76, 2.8, 2.8, 1.84, 1.84, 3.6, 6.01, 5.89, 5.89, 5.76, 5.1, 3.45, 1.67, 0.85, 2.41, 2.45, 1.66, 0.0, -0.78, 0.0, 0.86, 2.53, 2.51, 2.6, 3.52, 5.06, 6.61, 6.97, 7.28, 6.53, 5.77, 5.2, 5.2, 5.0, 4.87, 4.58, 5.93, 5.2, 5.2, 5.0, 5.0, 3.7, 3.7, 4.11, 4.11, 3.7, 3.7, 3.87, 3.87, 3.7, 3.35, 3.35, 2.79, 1.61, 1.88, 3.39, 4.44, 4.44, 3.98, 3.98, 4.92, 4.92, 4.92, 4.47, 3.98, 3.53, 3.54, 3.98, 3.98, 3.39, 3.53, 3.58, 3.98, 3.98, 3.98, 3.82, 3.82, 3.82, 3.6, 3.6, 3.14, 3.14, 3.14, 2.79, 2.23, 1.84, 1.99, 2.8, 3.2, 3.79, 3.78, 3.49, 3.12, 2.86, 2.44, 2.44, 1.76, 1.11, 0.57, 0.57, 0.96, 0.95, 1.84, 3.8, 4.5, 4.12, 3.6, 3.6, 4.2, 4.2, 2.83, 2.54, 4.07, 4.93, 4.81, 2.5, 0.0, 0.0, 0.0, 1.58, 3.19, 3.61, 4.5, 5.29, 6.31, 6.29, 5.4, 4.72, 3.6, 2.88, 2.95, 2.95, 3.07, 2.88, 2.88, 4.58, 4.4, 3.61, 3.61, 3.7, 3.7, 4.11, 4.11, 4.11, 3.7, 3.7, 3.7, 4.11, 3.72, 2.84, 2.23, 1.61, 2.21, 3.87, 4.44, 4.43, 3.98, 4.44, 4.92, 4.89, 4.47, 4.02, 3.53, 3.53, 3.58, 4.02, 3.98, 4.82, 3.53, 3.98, 3.98, 3.98, 3.97, 3.39, 3.39, 3.39, 3.2, 3.2, 3.07, 2.79, 2.79, 2.23, 1.84, 1.13, 0.57, 1.07, 2.36, 2.82, 2.84, 2.84, 2.44, 2.44, 2.2, 1.73, 1.76, 1.23, 0.57, 0.0, 0.0, 0.0, 1.73, 3.45, 2.99, 2.69, 1.75, 0.84, 1.4, 2.46, 2.7, 3.63, 4.2, 5.08, 5.78, 4.04, 1.59, 0.8, 1.62, 2.41, 3.82, 5.02, 5.1, 5.29, 4.72, 4.17, 3.47, 2.93, 1.74, 1.71, 1.52, 1.52, 1.52, 1.48, 2.19, 2.88, 2.95, 2.95, 2.95, 3.7, 3.7, 4.11, 4.11, 4.11, 3.7, 3.7, 4.11, 3.72, 3.72, 2.84, 2.23, 1.88, 1.88, 3.87, 4.44, 3.98, 3.98, 4.47, 4.92, 4.92, 4.02, 3.58, 3.53, 3.53, 3.58, 4.02, 4.02, 3.98, 4.82, 3.98, 3.98, 3.53, 3.53, 3.53, 3.39, 3.39, 3.39, 3.07, 3.07, 2.79, 2.79, 2.51, 1.8, 1.11, 0.57, 0.55, 1.19, 1.73, 1.94, 2.44, 2.44, 1.94, 1.94, 1.73, 1.73, 1.08, 0.63, 0.0, 0.0, 0.0, 1.73, 2.33, 1.84, 1.75, 1.75, 0.84, 0.0, 1.26, 1.39, 3.49, 3.36, 2.49, 1.62, 3.14, 3.2, 2.47, 3.29, 3.53, 3.73, 4.31, 4.31, 3.53, 2.87, 2.28, 1.79, 1.14, 0.58, 0.0, 0.0, 0.0, 0.0, 0.0, 0.71, 0.71, 2.41, 2.31, 2.31, 3.7, 3.7, 4.11, 4.11, 4.11, 4.11, 4.11, 4.11, 3.72, 3.43, 2.84, 2.23, 1.88, 2.21, 4.3, 3.98, 3.87, 3.98, 4.47, 4.47, 4.47, 4.02, 3.53, 3.53, 3.58, 3.58, 3.58, 3.58, 3.53, 3.53, 3.53, 3.53, 3.53, 3.53, 3.53, 3.39, 3.39, 3.39, 3.07, 3.07, 2.79, 2.84, 2.23, 1.76, 1.23, 0.0, 0.0, 0.57, 1.13, 1.8, 1.8, 1.76, 1.76, 1.76, 1.73, 1.19, 1.19, 0.55, 0.55, 0.0, 0.0, 1.4, 2.82, 2.54, 1.73, 1.84, 1.84, 0.84, 1.47, 2.58, 2.7, 2.49, 1.18, 0.78, 1.65, 3.96, 4.07, 3.14, 2.87, 2.18, 2.18, 2.18, 1.46, 0.74, 0.74, 0.0, 0.0, -0.56, -0.75, -0.8, -0.76, -0.82, -0.73, 0.0, 0.0, 1.45, 2.21, 2.21, 3.7, 3.7, 4.11, 4.11, 3.88, 4.11, 4.11, 3.88, 3.72, 3.43, 2.84, 2.23, 1.88, 2.68, 3.87, 3.87, 3.87, 3.98, 4.47, 4.47, 4.02, 3.58, 3.53, 3.53, 3.58, 3.58, 3.58, 3.58, 3.53, 3.53, 3.53, 3.53, 3.53, 3.53, 3.53, 3.53, 3.39, 3.32, 3.07, 3.07, 2.79, 2.84, 2.48, 1.76, 0.63, 0.0, 0.0, 0.0, 1.16, 1.61, 1.84, 1.8, 1.76, 1.76, 1.08, 1.08, 1.19, 0.55, 0.55, 0.0, 0.0, 1.4, 1.4, 2.4, 2.54, 2.54, 2.67, 2.54, 1.67, 1.75, 2.35, 2.6, 1.28, 0.83, 1.63, 4.01, 4.85, 3.95, 2.47, 1.55, 0.73, 0.73, 0.75, 0.0, 0.0, 0.0, -0.59, -0.8, -1.58, -1.63, -1.63, -1.56, -0.82, 0.0, 1.43, 2.89, 2.89, 2.89, 3.7, 3.7, 4.11, 4.11, 3.88, 3.88, 3.88, 3.72, 3.43, 3.43, 2.51, 2.23, 2.21, 3.2, 3.87, 3.87, 3.87, 3.98, 4.47, 4.02, 3.58, 3.58, 3.09, 3.58, 3.58, 3.58, 3.58, 3.53, 3.53, 3.58, 3.58, 3.58, 3.53, 3.53, 3.53, 3.53, 3.07, 2.91, 2.91, 3.07, 2.79, 2.84, 3.15, 1.76, 0.0, 0.0, 0.0, 0.0, 1.24, 1.88, 1.84, 1.8, 1.8, 1.76, 1.23, 1.08, 1.19, 0.61, 0.55, 0.0, 0.0, 0.0, 0.0, 0.83, 1.84, 1.26, 1.75, 1.67, 1.75, 1.75, 1.28, 1.76, 1.25, 1.6, 1.57, 3.2, 4.71, 3.98, 3.28, 2.18, 1.48, 0.71, 0.74, 0.74, 0.7, 0.0, 0.0, 0.0, 0.0, 0.0, 0.0, 0.78, 1.68, 2.47, 3.61, 4.4, 3.95, 3.95, 3.87, 3.87, 4.11, 4.11, 3.88, 3.88, 3.72, 3.72, 3.43, 3.16, 2.23, 1.84, 2.79, 3.6, 3.87, 3.39, 3.87, 4.02, 4.47, 4.02, 3.58, 3.09, 3.09, 3.58, 3.58, 3.13, 3.13, 3.13, 3.13, 3.58, 3.58, 3.58, 3.58, 3.53, 3.09, 3.09, 3.07, 2.91, 2.91, 2.68, 3.07, 3.14, 2.86, 3.63, 0.57, -0.89, -0.89, 0.63, 1.86, 2.21, 2.53, 2.51, 1.8, 1.76, 1.23, 1.08, 1.08, 0.61, 0.0, 0.0, 0.0, 0.0, 0.0, 0.0, 0.84, 1.26, 0.84, 0.85, 0.85, 0.85, 0.81, 1.62, 2.37, 2.4, 1.65, 1.61, 2.41, 3.3, 3.2, 2.97, 2.28, 2.1, 1.42, 1.42, 1.42, 2.25, 2.82, 3.25, 3.25, 3.25, 3.11, 3.11, 3.11, 3.36, 3.36, 3.78, 3.69, 4.31, 3.87, 3.87, 3.7, 3.6, 3.35, 3.35, 3.35, 3.72, 3.43, 2.86, 2.23, 2.23, 2.79, 3.7, 3.82, 3.39, 3.39, 4.02, 4.02, 3.58, 3.58, 3.09, 3.09, 3.13, 3.13, 3.13, 3.13, 3.13, 3.13, 3.13, 3.58, 3.58, 3.13, 3.13, 3.09, 3.07, 3.07, 3.07, 2.91, 2.91, 2.68, 3.07, 3.14, 4.54, 1.88, 0.0, 0.0, 1.7, 2.91, 2.79, 2.53, 2.51, 1.8, 1.58, 1.23, 1.08, 1.08, 0.61, 0.0, 0.0, 0.0, 0.0, 0.0, 0.0, 0.0, 0.0, 0.0, 0.0, 0.85, 0.85, 1.67, 2.49, 2.37, 2.39, 2.47, 0.83, 0.83, 1.62, 2.16, 2.87, 2.82, 2.19, 2.25, 2.25, 2.95, 3.76, 4.4, 4.68, 4.01, 4.01, 3.16, 3.25, 2.49, 2.59, 2.59, 2.28, 2.21, 3.69, 3.7, 3.7, 3.6, 3.6, 3.6, 3.35, 3.35, 3.72, 3.16, 2.23, 2.23, 2.53, 3.6, 3.7, 3.6, 3.2, 3.39, 3.98, 4.02, 3.58, 3.09, 3.09, 3.09, 3.13, 3.13, 3.13, 3.13, 3.13, 3.13, 3.13, 3.13, 3.13, 3.13, 3.13, 3.13, 3.07, 3.07, 3.07, 2.91, 2.91, 2.68, 2.5, 2.5, 2.79, 3.79, 1.2, 1.58, 3.07, 3.35, 3.14, 2.51, 2.07, 1.8, 1.27, 1.11, 1.23, 1.08, 0.61, 0.0, 0.0, 0.0, 0.0, 0.0, 0.0, 0.0, 0.0, 0.0, 0.0, 0.85, 1.67, 2.57, 2.47, 2.52, 3.53, 3.47, 2.45, 0.83, 0.8, 1.6, 2.19, 2.88, 2.88, 3.07, 3.76, 3.76, 4.32, 3.68, 3.19, 2.44, 2.34, 1.63, 1.63, 1.56, 1.62, 1.68, 1.68, 1.47, 2.21, 3.7, 3.7, 3.6, 3.6, 3.6, 3.6, 3.35, 3.09, 3.16, 2.23, 2.23, 2.79, 3.6, 3.7, 3.6, 3.2, 3.39, 4.02, 4.02, 3.58, 3.09, 3.09, 3.09, 3.13, 3.13, 3.13, 3.13, 3.13, 3.13, 3.13, 3.13, 3.13, 3.13, 3.13, 3.13, 3.07, 3.07, 3.07, 2.91, 2.91, 2.5, 2.15, 1.9, 1.9, 1.88, 2.76, 2.86, 3.48, 3.43, 3.16, 2.51, 1.8, 1.13, 1.27, 1.11, 1.23, 0.55, 0.61, 0.0, 0.0, 0.0, 0.0, 0.0, 0.0, 0.0, 0.0, 0.0, 0.0, 1.75, 2.44, 2.57, 2.47, 1.33, 2.52, 3.53, 4.66, 3.23, 2.44, 2.41, 3.29, 4.32, 4.48, 3.82, 3.68, 3.68, 2.82, 2.22, 2.37, 1.54, 0.8, 0.8, 0.82, 0.79, 0.82, 0.85, 0.81, 1.67, 1.67, 3.6, 3.6, 3.6, 3.6, 3.6, 3.6, 3.35, 3.09, 2.23, 2.23, 2.23, 3.2, 3.6, 3.6, 3.6, 3.6, 3.98, 4.02, 4.02, 3.53, 3.09, 3.09, 3.09, 3.13, 3.13, 3.13, 3.13, 3.13, 3.13, 3.13, 3.13, 3.13, 3.13, 3.13, 3.13, 3.13, 3.09, 3.09, 2.91, 2.8, 2.15, 1.9, 1.9, 1.24, 0.65, 1.13, 2.22, 2.86, 2.48, 2.23, 1.8, 1.13, 1.13, 0.59, 0.66, 0.57, 0.55, 0.61, 0.0, 0.0, 0.0, -0.61, -0.61, 0.0, 0.0, 1.32, 2.54, 1.4, 2.67, 2.69, 2.57, 1.75, 1.28, 1.62, 2.45, 3.76, 4.91, 4.87, 4.06, 5.06, 4.24, 4.31, 3.53, 2.93, 2.99, 1.71, 1.54, 0.8, 0.77, 0.0, 0.0, 0.0, 0.0, 0.0, 0.89, 1.84, 1.84, 1.84, 3.6, 3.6, 3.6, 3.6, 3.6, 3.6, 3.35, 2.84, 2.23, 2.23, 2.79, 3.2, 3.6, 3.6, 3.6, 3.82, 3.98, 4.02, 4.02, 3.53, 3.09, 3.53, 3.53, 3.58, 3.58, 3.58, 3.13, 3.13, 3.13, 3.13, 3.13, 3.13, 3.13, 3.13, 3.58, 3.58, 3.53, 3.07, 2.91, 2.4, 1.9, 1.9, 1.24, 1.24, 0.65, 0.61, 1.13, 1.8, 1.8, 1.6, 1.13, 1.13, 1.13, 0.59, 0.59, 0.57, 0.55, 0.55, 0.0, 0.0, 0.0, -0.54, -0.54, 0.0, 0.0, 1.25, 2.54, 2.69, 3.6, 2.69, 1.67, 0.89, 0.85, 0.85, 0.86, 2.45, 4.91, 5.79, 5.73, 5.48, 4.81, 4.31, 3.66, 2.93, 2.14, 1.44, 0.77, 0.77, 0.0, 0.0, 0.0, 0.0, 0.0, 0.0, 0.95, 1.84, 1.84, 1.84, 3.6, 3.6, 3.6, 3.6, 3.6, 3.35, 3.14, 2.51, 1.6, 2.23, 2.79, 3.2, 3.2, 3.2, 3.6, 3.82, 3.98, 4.02, 3.53, 3.53, 3.53, 3.53, 3.53, 3.58, 3.58, 3.58, 3.58, 3.13, 3.13, 3.13, 3.13, 3.58, 3.58, 3.58, 3.58, 3.58, 3.09, 3.07, 2.8, 2.4, 1.9, 1.9, 1.9, 1.49, 1.2, 1.2, 1.16, 1.16, 1.33, 1.33, 1.13, 1.13, 0.59, 0.59, 0.59, 0.0, 0.0, 0.0, 0.0, 0.0, 0.0, 0.0, -0.59, -0.59, 0.0, 1.25, 2.54, 2.67, 2.54, 1.75, 1.26, 0.0, 0.0, 0.82, 1.63, 2.44, 4.0, 4.91, 5.62, 5.55, 4.87, 4.46, 3.66, 3.04, 2.14, 1.48, 0.74, 0.0, 0.0, 0.0, 0.0, -0.77, 0.0, 0.96, 1.98, 1.84, 1.84, 1.84, 3.6, 3.6, 3.35, 2.79, 2.79, 3.14, 2.84, 1.84, 1.84, 1.84, 2.79, 3.2, 3.2, 3.2, 3.2, 3.39, 3.54, 3.53, 3.53, 3.53, 3.53, 3.53, 3.53, 3.58, 3.58, 3.58, 3.58, 3.58, 3.58, 3.58, 3.58, 3.58, 3.58, 3.58, 3.58, 3.58, 3.07, 2.91, 2.4, 2.4, 2.15, 1.9, 1.9, 1.9, 1.2, 1.2, 1.16, 1.16, 1.16, 1.16, 1.33, 1.13, 0.59, 0.59, 0.59, 0.0, 0.0, 0.0, 0.0, 0.0, 0.0, 0.0, -0.59, -0.59, 0.0, 1.32, 1.25, 0.89, 0.0, 0.89, 0.0, 0.0, 0.81, 0.82, 1.63, 2.51, 3.23, 4.0, 4.87, 5.55, 5.73, 4.87, 4.1, 2.93, 2.99, 2.19, 1.48, 0.0, 0.0, 0.0, 0.0, 0.0, 1.99, 2.16, 1.98, 1.96, 1.96, 1.96, 3.35, 3.35, 3.35, 2.79, 2.79, 3.14, 2.23, 1.6, 1.16, 2.21, 3.07, 3.2, 3.2, 3.2, 3.39, 3.39, 3.53, 3.53, 3.53, 3.53, 3.53, 3.53, 3.53, 3.58, 3.58, 3.58, 3.58, 3.58, 3.58, 3.58, 3.58, 3.58, 3.58, 3.58, 3.58, 3.13, 3.07, 2.49, 2.4, 2.4, 2.4, 2.15, 1.9, 1.9, 1.61, 1.2, 1.4, 1.16, 1.16, 1.16, 1.16, 0.7, 0.59, 0.59, 0.0, 0.0, 0.0, 0.0, 0.0, 0.0, 0.0, 0.0, -0.54, -0.54, 0.0, 0.0, 0.0, 0.0, 0.0, 0.0, 0.0, 0.0, 0.85, 1.62, 1.63, 2.51, 2.53, 3.34, 4.1, 4.98, 4.87, 4.76, 4.1, 2.99, 2.19, 1.48, 0.74, 0.0, 0.0, 0.0, 0.96, 2.2, 3.22, 1.84, 1.72, 1.84, 1.84, 1.84, 3.35, 3.35, 3.14, 2.79, 2.79, 2.23, 1.6, 1.13, 1.16, 2.21, 3.07, 3.2, 3.2, 3.2, 3.39, 3.53, 3.53, 3.53, 3.53, 3.53, 3.53, 3.53, 3.58, 3.58, 3.58, 3.58, 3.58, 3.58, 3.58, 3.58, 3.58, 3.58, 3.58, 3.58, 3.58, 3.07, 3.07, 2.63, 2.4, 2.4, 2.4, 2.15, 1.9, 1.9, 1.61, 1.61, 1.4, 1.16, 1.16, 1.16, 1.16, 0.61, 0.59, 0.59, 0.0, 0.0, 0.0, 0.0, 0.0, 0.0, 0.0, 0.0, 0.0, -0.55, 0.0, 0.0, 0.0, 0.0, 0.0, 0.0, 0.89, 0.89, 0.85, 0.82, 1.69, 1.63, 2.44, 3.32, 3.96, 4.1, 4.71, 4.91, 4.87, 3.6, 2.19, 1.45, 0.73, 0.73, 0.74, 0.78, 2.0, 2.48, 2.4, 1.84, 1.72, 1.84, 1.84, 1.84, 3.14, 3.14, 2.79, 2.79, 2.23, 2.23, 1.13, 1.16, 1.88, 2.68, 3.2, 3.2, 3.2, 3.39, 3.39, 3.53, 3.53, 3.53, 3.53, 3.53, 3.53, 3.53, 3.58, 3.58, 3.58, 3.58, 3.58, 3.58, 3.58, 3.58, 3.58, 3.58, 3.58, 3.58, 3.13, 3.07, 3.07, 3.07, 2.91, 2.4, 2.4, 2.15, 2.15, 1.9, 1.61, 1.61, 1.4, 1.4, 1.16, 1.16, 1.16, 0.61, 0.61, 0.59, 0.0, 0.0, 0.0, 0.0, 0.0, 0.0, 0.0, 0.0, -0.61, -0.55, -0.63, 0.0, 0.0, 0.89, 0.84, 0.85, 0.0, 0.0, 0.0, 0.82, 0.85, 1.63, 1.7, 2.44, 4.06, 4.1, 4.98, 5.55, 5.73, 4.98, 3.07, 2.11, 2.28, 2.21, 2.35, 1.72, 0.87, 1.27, 2.2, 2.16, 1.98, 1.84, 1.84, 1.84, 2.79, 2.79, 2.53, 2.53, 2.23, 1.6, 1.13, 1.16, 2.21, 3.07, 3.2, 3.2, 3.2, 3.39, 3.39, 3.39, 3.53, 3.53, 3.53, 3.39, 3.39, 3.54, 3.58, 3.58, 3.58, 3.58, 3.58, 3.58, 3.58, 3.58, 3.58, 3.58, 3.58, 3.58, 3.13, 3.07, 3.07, 3.07, 2.91, 2.8, 2.4, 2.15, 2.15, 1.9, 1.61, 1.61, 1.88, 1.4, 1.16, 1.16, 1.16, 0.61, 0.61, 0.59, 0.0, 0.0, 0.0, 0.0, 0.0, 0.0, 0.0, 0.0, -0.61, -0.55, -1.23, -0.96, 0.0, 0.83, 1.84, 0.89, 0.0, 0.0, 0.0, 0.0, 0.0, 0.79, 1.63, 2.51, 3.32, 3.96, 4.81, 4.98, 4.87, 4.87, 4.06, 2.9, 3.06, 2.97, 2.97, 1.55, 0.98, 0.99, 0.98, 1.05, 1.98, 1.84, 1.84, 1.84, 2.79, 2.53, 2.21, 2.21, 1.84, 1.13, 0.99, 1.16, 2.21, 3.07, 3.07, 3.07, 3.07, 3.39, 3.39, 3.39, 3.39, 3.39, 3.39, 3.39, 3.39, 3.97, 3.54, 3.53, 3.53, 3.53, 3.58, 3.58, 3.58, 3.58, 3.58, 3.58, 3.58, 3.13, 3.13, 3.07, 3.07, 3.07, 3.07, 2.91, 2.8, 2.5, 2.15, 1.9, 1.9, 1.61, 1.88, 1.4, 1.16, 1.16, 1.16, 0.61, 0.61, 0.59, 0.0, 0.0, 0.0, 0.0, 0.0, 0.0, 0.0, 0.0, -0.61, -0.55, -1.19, -1.19, 0.0, 0.0, 0.83, 1.84, 1.75, 1.67, 0.85, 0.0, 0.0, 0.85, 1.63, 2.51, 3.42, 4.06, 3.96, 4.1, 4.1, 4.0, 3.61, 3.06, 2.83, 2.28, 2.28, 1.58, 0.88, 1.13, 0.98, 0.96, 1.84, 1.98, 1.98, 1.98, 2.23, 2.23, 1.88, 1.61, 1.16, 0.51, 0.61, 1.88, 2.5, 2.68, 2.68, 2.68, 2.91, 2.91, 3.39, 3.39, 3.39, 3.39, 3.39, 3.39, 3.39, 3.39, 3.53, 3.53, 3.53, 3.53, 3.53, 3.53, 3.58, 3.58, 3.58, 3.13, 3.13, 3.13, 3.13, 3.13, 3.07, 3.07, 3.07, 2.91, 2.8, 2.5, 2.5, 2.5, 2.21, 1.88, 1.88, 1.88, 1.4, 1.16, 1.16, 1.16, 0.61, 0.59, 0.0, 0.0, 0.0, 0.0, 0.0, 0.0, 0.0, 0.0, -0.54, -0.61, -1.19, -1.73, -1.72, 0.0, 0.95, 1.73, 1.65, 1.75, 2.44, 2.69, 0.89, 1.68, 2.71, 3.39, 3.29, 3.42, 4.06, 4.21, 4.1, 3.32, 2.97, 3.06, 2.17, 2.28, 2.28, 2.35, 2.26, 1.55, 1.08, 0.96, 1.05, 1.84, 1.84, 1.84, 1.84, 1.84, 1.61, 1.16, 0.61, 0.61, 1.0, 1.61, 2.5, 2.5, 2.5, 2.5, 2.91, 2.91, 3.39, 3.39, 3.39, 3.39, 3.39, 3.39, 3.39, 3.39, 3.53, 3.53, 3.53, 3.53, 3.53, 3.53, 3.09, 3.13, 3.13, 3.13, 3.13, 3.13, 3.13, 3.13, 3.07, 3.07, 3.07, 2.91, 2.91, 2.8, 2.5, 2.5, 2.5, 1.88, 1.88, 1.88, 1.4, 1.16, 1.16, 1.16, 0.61, 0.59, 0.0, 0.0, 0.0, 0.0, 0.0, 0.0, 0.0, -0.54, -0.54, -0.61, -1.19, -1.73, -1.7, -0.59, 0.0, 0.89, 0.84, 0.89, 1.67, 3.32, 3.63, 3.32, 4.4, 4.44, 4.13, 3.39, 4.01, 4.06, 4.0, 3.19, 2.35, 2.23, 2.23, 2.35, 3.06, 3.88, 3.7, 3.27, 2.64, 1.98, 0.96, 2.16, 2.16, 2.16, 1.84, 1.84, 1.16, 1.16, 0.51, 0.61, 1.2, 1.61, 1.9, 1.9, 2.15, 2.5, 2.91, 3.39, 3.39, 3.39, 3.39, 3.39, 3.39, 3.39, 3.39, 3.39, 3.39, 3.53, 3.39, 3.39, 3.39, 3.39, 3.53, 3.09, 3.07, 3.13, 3.13, 3.13, 3.07, 3.07, 3.07, 3.07, 3.07, 2.91, 2.91, 2.91, 2.5, 2.5, 2.5, 2.21, 1.88, 1.88, 1.88, 1.16, 1.16, 1.16, 0.61, 0.59, 0.0, 0.0, 0.0, 0.0, 0.0, 0.0, 0.0, -0.54, -0.54, -0.54, -1.19, -1.73, -1.7, -1.16, 0.0, 0.0, 0.0, 0.89, 1.67, 2.57, 2.57, 2.57, 4.2, 4.07, 4.13, 4.13, 4.3, 4.17, 5.02, 4.1, 3.36, 2.54, 2.69, 3.32, 3.7, 4.5, 4.4, 3.61, 3.49, 2.69, 1.84, 1.72, 1.72, 1.72, 1.84, 1.84, 1.13, 0.59, 0.0, 0.53, 1.2, 1.2, 1.61, 1.61, 2.5, 2.68, 3.2, 3.2, 3.6, 3.6, 3.6, 3.6, 3.2, 3.39, 3.39, 3.39, 3.39, 3.32, 2.91, 3.32, 3.32, 3.32, 3.39, 3.32, 3.07, 3.07, 3.07, 3.07, 3.07, 3.07, 3.07, 3.07, 3.07, 3.07, 2.91, 2.91, 2.5, 2.5, 2.5, 2.5, 1.88, 1.88, 1.88, 1.4, 1.16, 1.16, 0.61, 0.51, 0.0, 0.0, 0.0, 0.0, 0.0, 0.0, 0.0, -0.54, -0.54, -0.54, -1.19, -1.19, -1.73, -1.73, -1.19, 0.0, 0.0, 0.0, 0.8, 1.67, 1.75, 1.75, 1.75, 2.59, 3.25, 3.39, 4.13, 4.93, 5.73, 5.73, 4.3, 3.45, 2.99, 3.7, 3.88, 3.88, 3.61, 3.61, 2.97, 2.47, 2.57, 1.75, 1.75, 1.75, 1.13, 1.13, 0.59, 0.0, 0.0, 0.53, 1.2, 1.2, 1.61, 2.21, 2.79, 3.07, 3.6, 3.6, 3.6, 3.6, 3.35, 3.6, 3.6, 3.6, 3.39, 3.39, 3.39, 3.32, 3.32, 3.32, 3.32, 3.32, 3.32, 3.32, 2.91, 2.91, 3.07, 2.63, 2.63, 2.63, 2.63, 2.63, 2.63, 2.63, 2.4, 2.8, 2.8, 2.5, 2.5, 2.5, 2.21, 1.88, 1.88, 1.4, 1.16, 0.61, 0.61, 0.51, 0.59, 0.0, 0.0, 0.0, 0.0, 0.0, 0.0, 0.0, -0.54, -0.54, -1.07, -1.19, -1.19, -1.73, -1.73, -0.95, -0.89, 0.0, 0.0, 0.89, 1.67, 1.75, 1.75, 1.68, 2.59, 2.49, 4.3, 4.75, 4.98, 5.45, 4.93, 3.36, 2.99, 3.06, 2.97, 2.83, 2.17, 2.28, 2.28, 2.7, 2.57, 1.75, 1.75, 1.75, 1.13, 1.13, 0.59, 0.0, 0.0, 0.53, 1.2, 1.2, 1.61, 2.53, 3.14, 3.35, 3.72, 3.88, 3.88, 3.88, 3.88, 3.88, 3.88, 3.6, 3.6, 3.2, 3.2, 3.2, 3.2, 3.2, 3.07, 3.07, 3.07, 3.07, 3.07, 2.91, 2.91, 2.91, 2.6, 2.6, 2.6, 2.6, 2.6, 2.4, 2.4, 2.4, 2.8, 2.5, 2.5, 2.5, 2.21, 1.88, 1.88, 1.88, 1.4, 1.16, 0.61, 0.51, 0.59, 0.0, 0.0, 0.0, 0.0, 0.0, 0.0, 0.0, -0.54, -0.54, -1.07, -1.19, -1.19, -1.57, -1.94, -1.84, -0.95, 0.0, 0.0, 1.65, 1.75, 1.67, 2.44, 2.57, 2.47, 3.25, 4.3, 4.17, 4.1, 4.13, 4.1, 4.13, 3.32, 3.06, 2.97, 2.28, 2.17, 2.17, 1.47, 1.75, 1.67, 2.69, 2.69, 2.69, 0.59, 0.59, 0.0, 0.0, 0.0, 0.61, 1.0, 1.16, 2.23, 2.84, 3.09, 3.72, 3.72, 3.88, 4.27, 4.0, 4.27, 4.27, 3.88, 3.88, 3.72, 3.35, 3.6, 3.6, 3.6, 3.6, 3.2, 3.2, 3.07, 3.07, 3.07, 3.07, 2.68, 2.91, 2.4, 2.4, 2.4, 2.4, 2.4, 2.4, 2.4, 2.4, 2.15, 2.15, 2.5, 2.5, 1.88, 1.88, 1.88, 1.88, 1.4, 1.16, 0.61, 0.61, 0.59, 0.0, 0.0, 0.0, 0.0, 0.0, 0.0, 0.0, -0.54, -0.54, -0.54, -1.19, -1.19, -1.73, -2.2, -2.18, -1.14, 0.0, 0.89, 0.94, 1.65, 1.84, 2.44, 2.57, 2.7, 3.51, 3.39, 3.42, 3.23, 3.25, 4.1, 4.3, 3.49, 3.06, 2.97, 2.28, 2.17, 2.17, 2.17, 2.57, 2.57, 3.45, 3.45, 3.45, 0.59, 0.59, 0.0, 0.0, 0.0, 0.51, 0.99, 1.6, 2.23, 3.16, 3.43, 3.43, 4.0, 4.0, 4.0, 4.0, 4.0, 4.0, 4.0, 3.64, 3.88, 3.72, 3.72, 3.72, 3.35, 3.35, 3.35, 3.35, 3.6, 3.07, 3.07, 3.07, 3.07, 2.68, 2.5, 2.4, 2.4, 2.4, 2.4, 2.4, 2.23, 1.9, 1.9, 1.9, 2.21, 1.88, 1.88, 1.88, 1.88, 1.88, 1.4, 1.16, 0.61, 0.61, 0.59, 0.59, 0.0, 0.0, 0.0, 0.0, 0.0, 0.0, 0.0, -0.54, -0.54, -1.07, -1.19, -1.73, -2.2, -2.4, -1.7, -0.89, 0.0, 1.32, 0.89, 1.75, 1.67, 1.75, 1.75, 1.68, 2.49, 2.51, 3.32, 3.34, 4.1, 4.17, 4.07, 3.49, 3.06, 2.97, 2.83, 2.17, 3.06, 3.06, 3.06, 3.69, 3.69, 3.69, 0.0, 0.0, 0.0, 0.0, 0.0, 0.59, 1.13, 1.8, 2.86, 2.86, 3.48, 3.78, 4.0, 4.0, 4.0, 4.0, 4.0, 4.0, 4.0, 4.0, 4.0, 3.64, 3.43, 3.72, 3.72, 3.72, 3.35, 3.35, 3.35, 3.14, 2.79, 2.79, 2.79, 2.79, 2.5, 2.5, 2.5, 2.15, 1.9, 1.9, 1.9, 1.9, 1.9, 1.9, 1.88, 1.88, 1.88, 1.88, 1.88, 1.4, 1.16, 1.16, 0.61, 0.61, 0.51, 0.59, 0.0, 0.0, 0.0, 0.0, 0.0, 0.0, 0.0, -0.54, -0.54, -1.16, -1.07, -1.73, -2.4, -2.4, -2.4, -1.16, 0.0, 0.0, 0.0, 0.84, 0.89, 0.85, 1.75, 1.68, 1.76, 2.41, 2.44, 3.23, 4.1, 4.06, 4.13, 3.65, 3.49, 3.49, 3.49, 3.49, 3.88, 3.88, 3.88, 4.26, 4.26, 4.26, 0.0, 0.0, 0.0, 0.0, 0.0, 0.59, 1.13, 1.8, 2.86, 2.86, 3.48, 3.78, 4.0, 4.0, 4.0, 4.0, 4.0, 4.0, 4.0, 4.0, 4.0, 3.64, 3.43, 3.72, 3.72, 3.72, 3.35, 3.35, 3.35, 3.14, 2.79, 2.79, 2.79, 2.79, 2.5, 2.5, 2.5, 2.15, 1.9, 1.9, 1.9, 1.9, 1.9, 1.9, 1.88, 1.88, 1.88, 1.88, 1.88, 1.4, 1.16, 1.16, 0.61, 0.61, 0.51, 0.59, 0.0, 0.0, 0.0, 0.0, 0.0, 0.0, 0.0, -0.54, -0.54, -1.16, -1.07, -1.73, -2.4, -2.4, -2.4, -1.16, 0.0, 0.0, 0.0, 0.84, 0.85, 0.85, 1.75, 1.68, 1.76, 1.69, 2.51, 3.32, 4.21, 4.75, 5.0, 4.25, 4.07, 4.07, 4.4, 4.4, 4.07, 4.07, 3.36, 4.42, 4.42, 4.42]}]